CW3318 Weather Reports


Display with metric or nautical units.
time (UTC)temp
F
wind
direction
speed
MPH
gust
MPH
rain 1hr
in
rain 24hr
in
rain mn
in
humidity
%
barometer
mb
20260902173850 61 177 7.0 18.0 0.00 0.00 0.00 56 1003.3
20260902173800 61 163 7.0 18.0 0.00 0.00 0.00 56 1003.2
20260902173658 61 188 8.0 18.0 0.00 0.00 0.00 56 1003.2
20260902173552 61 158 6.0 18.0 0.00 0.00 0.00 56 1003.2
20260902173458 61 163 5.0 18.0 0.00 0.00 0.00 56 1003.3
20260902173355 61 158 6.0 18.0 0.00 0.00 0.00 56 1003.3
20260902173259 61 127 7.0 18.0 0.00 0.00 0.00 56 1003.3
20260902173156 61 182 10.0 18.0 0.00 0.00 0.00 56 1003.3
20260902173104 61 154 12.0 19.0 0.00 0.00 0.00 56 1003.3
20260902172942 61 188 11.0 19.0 0.00 0.00 0.00 56 1003.3
20260902172839 61 165 9.0 18.0 0.00 0.00 0.00 56 1003.3
20260902172745 61 158 8.0 18.0 0.00 0.00 0.00 56 1003.3
20260902172705 61 192 9.0 19.0 0.00 0.00 0.00 56 1003.2
20260902172546 61 169 11.0 19.0 0.00 0.00 0.00 56 1003.2
20260902172451 61 188 12.0 19.0 0.00 0.00 0.00 56 1003.3
20260902172351 61 136 10.0 19.0 0.00 0.00 0.00 56 1003.2
20260902172258 61 140 8.0 19.0 0.00 0.00 0.00 56 1003.3
20260902172216 61 212 8.0 16.0 0.00 0.00 0.00 56 1003.3
20260902172059 61 171 10.0 16.0 0.00 0.00 0.00 56 1003.3
20260902171955 61 167 8.0 19.0 0.00 0.00 0.00 56 1003.3
20260902171901 61 186 7.0 18.0 0.00 0.00 0.00 56 1003.3
20260902171757 61 167 9.0 18.0 0.00 0.00 0.00 56 1003.3
20260902171705 61 198 9.0 18.0 0.00 0.00 0.00 56 1003.3
20260902171543 61 211 8.0 20.0 0.00 0.00 0.00 56 1003.3
20260902171449 61 156 9.0 20.0 0.00 0.00 0.00 57 1003.3
20260902171345 61 161 8.0 20.0 0.00 0.00 0.00 57 1003.3
20260902171242 61 148 7.0 20.0 0.00 0.00 0.00 57 1003.3
20260902171150 61 200 7.0 20.0 0.00 0.00 0.00 57 1003.3
20260902171113 61 167 8.0 20.0 0.00 0.00 0.00 57 1003.2
20260902170949 61 167 9.0 20.0 0.00 0.00 0.00 57 1003.3
20260902170839 61 155 11.0 20.0 0.00 0.00 0.00 57 1003.3
20260902170756 61 182 10.0 20.0 0.00 0.00 0.00 57 1003.3
20260902170703 61 161 9.0 17.0 0.00 0.00 0.00 57 1003.3
20260902170536 61 188 8.0 17.0 0.00 0.00 0.00 57 1003.3
20260902170504 61 204 9.0 18.0 0.00 0.00 0.00 57 1003.3
20260902170409 61 115 10.0 18.0 0.00 0.00 0.00 57 1003.3
20260902170304 61 205 10.0 18.0 0.00 0.00 0.00 57 1003.3
20260902170150 61 190 9.0 18.0 0.00 0.00 0.00 57 1003.3
20260902170048 61 210 11.0 19.0 0.00 0.00 0.00 57 1003.3
20260902165954 61 174 9.0 18.0 0.00 0.00 0.00 57 1003.3
20260902165900 61 202 8.0 18.0 0.00 0.00 0.00 57 1003.3
20260902165737 61 164 6.0 18.0 0.00 0.00 0.00 57 1003.3
20260902165706 61 151 8.0 18.0 0.00 0.00 0.00 57 1003.3
20260902165538 61 146 9.0 18.0 0.00 0.00 0.00 57 1003.3
20260902165455 61 167 8.0 18.0 0.00 0.00 0.00 57 1003.2
20260902165349 61 144 7.0 17.0 0.00 0.00 0.00 58 1003.3
20260902165258 61 198 6.0 16.0 0.00 0.00 0.00 57 1003.3
20260902165138 61 198 8.0 16.0 0.00 0.00 0.00 58 1003.3
20260902165052 61 211 9.0 16.0 0.00 0.00 0.00 58 1003.3
20260902165018 61 187 10.0 16.0 0.00 0.00 0.00 58 1003.3
20260902164901 61 156 10.0 17.0 0.00 0.00 0.00 58 1003.3
20260902164754 61 194 9.0 17.0 0.00 0.00 0.00 58 1003.3
20260902164653 61 196 9.0 17.0 0.00 0.00 0.00 58 1003.3
20260902164541 61 157 9.0 20.0 0.00 0.00 0.00 58 1003.3
20260902164439 61 171 6.0 20.0 0.00 0.00 0.00 58 1003.4
20260902164404 61 175 6.0 20.0 0.00 0.00 0.00 58 1003.4
20260902164240 61 206 9.0 20.0 0.00 0.00 0.00 57 1003.3
20260902164139 61 179 9.0 20.0 0.00 0.00 0.00 57 1003.2
20260902164102 61 211 8.0 20.0 0.00 0.00 0.00 57 1003.2
20260902163951 61 202 8.0 20.0 0.00 0.00 0.00 57 1003.3
20260902163847 61 188 8.0 20.0 0.00 0.00 0.00 57 1003.2
20260902163744 61 201 9.0 20.0 0.00 0.00 0.00 57 1003.3
20260902163713 61 215 7.0 22.0 0.00 0.00 0.00 57 1003.3
20260902163553 61 167 6.0 15.0 0.00 0.00 0.00 57 1003.3
20260902163449 61 168 8.0 14.0 0.00 0.00 0.00 57 1003.3
20260902163346 61 187 11.0 14.0 0.00 0.00 0.00 57 1003.3
20260902163252 62 208 9.0 18.0 0.00 0.00 0.00 57 1003.3
20260902163204 62 151 9.0 18.0 0.00 0.00 0.00 57 1003.3
20260902163058 62 140 10.0 19.0 0.00 0.00 0.00 57 1003.3
20260902163024 62 168 10.0 19.0 0.00 0.00 0.00 57 1003.3
20260902162838 62 181 9.0 19.0 0.00 0.00 0.00 57 1003.3
20260902162746 62 140 8.0 19.0 0.00 0.00 0.00 57 1003.3
20260902162639 62 182 6.0 19.0 0.00 0.00 0.00 57 1003.3
20260902162607 62 168 6.0 19.0 0.00 0.00 0.00 57 1003.3
20260902162504 61 201 9.0 19.0 0.00 0.00 0.00 56 1003.4
20260902162348 61 177 9.0 19.0 0.00 0.00 0.00 56 1003.4
20260902162245 61 192 10.0 19.0 0.00 0.00 0.00 57 1003.4
20260902162213 61 218 10.0 18.0 0.00 0.00 0.00 57 1003.4
20260902162047 61 194 9.0 18.0 0.00 0.00 0.00 57 1003.4
20260902161951 61 185 10.0 18.0 0.00 0.00 0.00 56 1003.3
20260902161847 61 149 10.0 18.0 0.00 0.00 0.00 57 1003.4
20260902161737 61 172 9.0 18.0 0.00 0.00 0.00 57 1003.4
20260902161656 61 201 9.0 18.0 0.00 0.00 0.00 57 1003.3
20260902161600 61 181 10.0 18.0 0.00 0.00 0.00 57 1003.3
20260902161456 61 204 12.0 18.0 0.00 0.00 0.00 58 1003.3
20260902161401 61 144 11.0 18.0 0.00 0.00 0.00 58 1003.3
20260902161316 61 182 10.0 19.0 0.00 0.00 0.00 58 1003.4
20260902161202 61 181 10.0 19.0 0.00 0.00 0.00 59 1003.4
20260902161042 60 214 9.0 19.0 0.00 0.00 0.00 60 1003.3
20260902160938 60 165 7.0 17.0 0.00 0.00 0.00 61 1003.3
20260902160844 60 173 7.0 14.0 0.00 0.00 0.00 61 1003.4
20260902160739 60 199 7.0 14.0 0.00 0.00 0.00 62 1003.3
20260902160647 60 168 7.0 14.0 0.00 0.00 0.00 63 1003.3
20260902160543 60 210 8.0 14.0 0.00 0.00 0.00 63 1003.4
20260902160449 59 190 9.0 14.0 0.00 0.00 0.00 63 1003.4
20260902160350 59 178 8.0 14.0 0.00 0.00 0.00 64 1003.4
20260902160309 59 186 6.0 11.0 0.00 0.00 0.00 67 1003.4
20260902160224 59 177 6.0 9.0 0.00 0.00 0.00 67 1003.4
20260902160117 59 183 5.0 9.0 0.00 0.00 0.00 67 1003.4
20260902160002 59 219 2.0 6.0 0.00 0.00 0.00 68 1003.5
20260902155838 59 240 2.0 6.0 0.00 0.00 0.00 69 1003.4
20260902155803 58 240 3.0 6.0 0.00 0.00 0.00 68 1003.6
20260902155641 58 240 4.0 6.0 0.00 0.00 0.00 68 1003.6
20260902155604 58 241 4.0 6.0 0.00 0.00 0.00 68 1003.6
20260902155513 58 241 3.0 5.0 0.00 0.00 0.00 68 1003.6
20260902155417 58 251 3.0 7.0 0.00 0.00 0.00 68 1003.5
20260902155253 58 250 3.0 7.0 0.00 0.00 0.00 68 1003.6
20260902155159 58 250 2.0 7.0 0.00 0.00 0.00 68 1003.6
20260902155122 58 250 2.0 7.0 0.00 0.00 0.00 69 1003.6
20260902154938 58 250 2.0 7.0 0.00 0.00 0.00 69 1003.7
20260902154850 58 250 2.0 7.0 0.00 0.00 0.00 69 1003.7
20260902154816 58 250 3.0 7.0 0.00 0.00 0.00 69 1003.7
20260902154704 58 250 4.0 7.0 0.00 0.00 0.00 69 1003.7
20260902154540 58 250 4.0 7.0 0.00 0.00 0.00 70 1003.8
20260902154507 58 206 4.0 6.0 0.00 0.00 0.00 70 1003.8
20260902154343 57 206 4.0 7.0 0.00 0.00 0.00 71 1003.8
20260902154247 57 205 3.0 7.0 0.00 0.00 0.00 71 1003.7
20260902154147 57 200 3.0 7.0 0.00 0.00 0.00 71 1003.8
20260902154051 57 200 4.0 7.0 0.00 0.00 0.00 71 1003.8
20260902153948 57 200 3.0 7.0 0.00 0.00 0.00 72 1003.8
20260902153849 57 200 4.0 7.0 0.00 0.00 0.00 73 1003.8
20260902153755 57 200 4.0 7.0 0.00 0.00 0.00 73 1003.9
20260902153654 57 200 3.0 7.0 0.00 0.00 0.00 73 1003.8
20260902153558 56 197 5.0 7.0 0.00 0.00 0.00 74 1003.9
20260902153506 56 197 5.0 7.0 0.00 0.00 0.00 74 1003.9
20260902153343 56 195 4.0 7.0 0.00 0.00 0.00 74 1003.8
20260902153242 56 193 4.0 6.0 0.00 0.00 0.00 74 1004.0
20260902153140 56 192 4.0 6.0 0.00 0.00 0.00 74 1004.0
20260902153043 56 192 4.0 6.0 0.00 0.00 0.00 74 1004.0
20260902152942 56 192 3.0 6.0 0.00 0.00 0.00 75 1004.0
20260902152906 55 192 2.0 6.0 0.00 0.00 0.00 75 1004.0
20260902152741 55 190 2.0 6.0 0.00 0.00 0.00 74 1004.1
20260902152650 55 190 2.0 6.0 0.00 0.00 0.00 75 1004.0
20260902152548 55 190 3.0 6.0 0.00 0.00 0.00 75 1004.1
20260902152454 55 190 3.0 6.0 0.00 0.00 0.00 75 1004.1
20260902152350 55 192 2.0 6.0 0.00 0.00 0.00 76 1004.1
20260902152257 55 159 2.0 7.0 0.00 0.00 0.00 77 1004.1
20260902152156 55 159 3.0 7.0 0.00 0.00 0.00 76 1004.1
20260902152050 54 159 3.0 7.0 0.00 0.00 0.00 77 1004.1
20260902152016 54 159 3.0 7.0 0.00 0.00 0.00 77 1004.2
20260902151903 54 160 2.0 6.0 0.00 0.00 0.00 77 1004.2
20260902151739 54 160 1.0 6.0 0.00 0.00 0.00 78 1004.3
20260902151647 54 160 2.0 6.0 0.00 0.00 0.00 77 1004.2
20260902151541 54 160 2.0 6.0 0.00 0.00 0.00 78 1004.3
20260902151445 54 161 2.0 6.0 0.00 0.00 0.00 78 1004.3
20260902151342 54 161 2.0 6.0 0.00 0.00 0.00 78 1004.3
20260902151248 54 159 2.0 5.0 0.00 0.00 0.00 78 1004.3
20260902151153 54 157 3.0 7.0 0.00 0.00 0.00 78 1004.3
20260902151117 54 157 4.0 7.0 0.00 0.00 0.00 78 1004.3
20260902151022 53 157 4.0 7.0 0.00 0.00 0.00 79 1004.3
20260902150837 53 146 3.0 7.0 0.00 0.00 0.00 79 1004.3
20260902150754 53 127 2.0 7.0 0.00 0.00 0.00 79 1004.3
20260902150702 53 127 3.0 7.0 0.00 0.00 0.00 79 1004.3
20260902150537 53 127 3.0 7.0 0.00 0.00 0.00 79 1004.3
20260902150503 53 126 3.0 7.0 0.00 0.00 0.00 80 1004.3
20260902150403 53 125 3.0 7.0 0.00 0.00 0.00 80 1004.3
20260902150258 53 148 2.0 4.0 0.00 0.00 0.00 80 1004.4
20260902150144 53 148 1.0 4.0 0.00 0.00 0.00 80 1004.4
20260902150046 53 148 1.0 4.0 0.00 0.00 0.00 80 1004.4
20260902145943 53 148 1.0 4.0 0.00 0.00 0.00 80 1004.4
20260902145847 52 148 2.0 4.0 0.00 0.00 0.00 80 1004.4
20260902145744 52 148 2.0 4.0 0.00 0.00 0.00 80 1004.4
20260902145658 52 148 2.0 4.0 0.00 0.00 0.00 80 1004.4
20260902145553 52 148 1.0 4.0 0.00 0.00 0.00 80 1004.4
20260902145519 52 148 1.0 3.0 0.00 0.00 0.00 80 1004.4
20260902145351 52 148 1.0 3.0 0.00 0.00 0.00 80 1004.4
20260902145255 52 148 1.0 3.0 0.00 0.00 0.00 80 1004.4
20260902145154 52 148 1.0 3.0 0.00 0.00 0.00 80 1004.4
20260902145056 52 148 1.0 3.0 0.00 0.00 0.00 80 1004.4
20260902144940 52 148 0.0 2.0 0.00 0.00 0.00 80 1004.3
20260902144841 52 148 0.0 2.0 0.00 0.00 0.00 80 1004.4
20260902144738 52 148 1.0 2.0 0.00 0.00 0.00 80 1004.3
20260902144646 52 148 1.0 2.0 0.00 0.00 0.00 80 1004.4
20260902144540 52 148 0.0 1.0 0.00 0.00 0.00 80 1004.4
20260902144446 52 148 0.0 1.0 0.00 0.00 0.00 80 1004.4
20260902144343 52 148 0.0 1.0 0.00 0.00 0.00 80 1004.4
20260902144310 52 148 0.0 1.0 0.00 0.00 0.00 80 1004.5
20260902144152 52 148 0.0 0.0 0.00 0.00 0.00 80 1004.4
20260902144040 52 148 0.0 1.0 0.00 0.00 0.00 80 1004.5
20260902143956 52 148 0.0 2.0 0.00 0.00 0.00 80 1004.5
20260902143900 52 148 0.0 2.0 0.00 0.00 0.00 80 1004.5
20260902143736 52 148 0.0 2.0 0.00 0.00 0.00 80 1004.5
20260902143705 52 148 0.0 2.0 0.00 0.00 0.00 80 1004.5
20260902143543 52 148 0.0 2.0 0.00 0.00 0.00 80 1004.5
20260902143440 52 148 0.0 2.0 0.00 0.00 0.00 80 1004.5
20260902143404 52 148 0.0 2.0 0.00 0.00 0.00 80 1004.5
20260902143259 52 148 1.0 2.0 0.00 0.00 0.00 80 1004.5
20260902143145 52 148 1.0 2.0 0.00 0.00 0.00 80 1004.5
20260902143108 52 148 1.0 2.0 0.00 0.00 0.00 80 1004.6
20260902142944 52 148 1.0 2.0 0.00 0.00 0.00 80 1004.6
20260902142911 52 148 1.0 2.0 0.00 0.00 0.00 80 1004.6
20260902142756 52 148 1.0 2.0 0.00 0.00 0.00 79 1004.7
20260902142708 52 148 1.0 2.0 0.00 0.00 0.00 79 1004.7
20260902142543 52 148 1.0 2.0 0.00 0.00 0.00 79 1004.7
20260902142505 52 148 1.0 2.0 0.00 0.00 0.00 79 1004.7
20260902142338 52 148 1.0 2.0 0.00 0.00 0.00 79 1004.7
20260902142244 52 148 1.0 3.0 0.00 0.00 0.00 79 1004.6
20260902142203 52 148 1.0 3.0 0.00 0.00 0.00 79 1004.6
20260902142046 52 148 1.0 3.0 0.00 0.00 0.00 79 1004.7
20260902141941 52 148 1.0 3.0 0.00 0.00 0.00 80 1004.7
20260902141851 52 148 1.0 3.0 0.00 0.00 0.00 80 1004.7
20260902141748 52 148 1.0 3.0 0.00 0.00 0.00 80 1004.7
20260902141657 52 148 2.0 3.0 0.00 0.00 0.00 80 1004.7
20260902141601 52 148 2.0 3.0 0.00 0.00 0.00 80 1004.6
20260902141437 52 148 2.0 3.0 0.00 0.00 0.00 80 1004.7
20260902141355 52 148 1.0 3.0 0.00 0.00 0.00 80 1004.7
20260902141300 52 148 1.0 2.0 0.00 0.00 0.00 80 1004.7
20260902141147 52 148 1.0 2.0 0.00 0.00 0.00 80 1004.7
20260902141045 52 148 0.0 2.0 0.00 0.00 0.00 80 1004.7
20260902140950 52 148 0.0 2.0 0.00 0.00 0.00 80 1004.7
20260902140855 52 148 0.0 2.0 0.00 0.00 0.00 80 1004.7
20260902140752 52 148 1.0 2.0 0.00 0.00 0.00 80 1004.7
20260902140720 52 148 1.0 2.0 0.00 0.00 0.00 80 1004.7
20260902140555 52 148 0.0 3.0 0.00 0.00 0.00 80 1004.7
20260902140458 52 148 0.0 3.0 0.00 0.00 0.00 79 1004.7
20260902140339 52 148 0.0 3.0 0.00 0.00 0.00 79 1004.7
20260902140316 52 148 0.0 3.0 0.00 0.00 0.00 80 1004.6
20260902140140 52 148 0.0 3.0 0.00 0.00 0.00 80 1004.7
20260902140043 52 148 0.0 3.0 0.00 0.00 0.00 79 1004.7
20260902140010 52 148 1.0 4.0 0.00 0.00 0.00 80 1004.8
20260902135844 52 148 1.0 4.0 0.00 0.00 0.00 80 1004.8
20260902135746 52 148 1.0 4.0 0.00 0.00 0.00 80 1004.8
20260902135655 52 148 1.0 4.0 0.00 0.00 0.00 80 1004.8
20260902135550 52 148 1.0 4.0 0.00 0.00 0.00 80 1004.8
20260902135451 52 148 2.0 4.0 0.00 0.00 0.00 80 1004.9
20260902135337 52 148 2.0 4.0 0.00 0.00 0.00 80 1004.9
20260902135201 52 148 2.0 4.0 0.00 0.00 0.00 80 1004.9
20260902135055 52 148 2.0 4.0 0.00 0.00 0.00 80 1004.9
20260902134959 52 148 2.0 3.0 0.00 0.00 0.00 80 1004.9
20260902134852 52 148 2.0 4.0 0.00 0.00 0.00 80 1004.9
20260902134800 51 148 1.0 4.0 0.00 0.00 0.00 80 1004.9
20260902134659 52 148 1.0 4.0 0.00 0.00 0.00 80 1004.9
20260902134602 52 148 0.0 4.0 0.00 0.00 0.00 80 1004.8
20260902134439 52 148 1.0 4.0 0.00 0.00 0.00 80 1004.8
20260902134403 52 148 1.0 4.0 0.00 0.00 0.00 80 1004.8
20260902134240 51 148 2.0 4.0 0.00 0.00 0.00 80 1004.8
20260902134210 51 148 2.0 4.0 0.00 0.00 0.00 80 1004.7
20260902134046 51 148 3.0 4.0 0.00 0.00 0.00 80 1004.7
20260902133952 51 148 2.0 4.0 0.00 0.00 0.00 80 1004.7
20260902133918 51 148 2.0 4.0 0.00 0.00 0.00 80 1004.7
20260902133755 51 148 2.0 4.0 0.00 0.00 0.00 80 1004.7
20260902133652 51 148 2.0 4.0 0.00 0.00 0.00 80 1004.8
20260902133556 51 148 2.0 4.0 0.00 0.00 0.00 80 1004.7
20260902133524 51 148 2.0 4.0 0.00 0.00 0.00 80 1004.7
20260902133359 51 148 2.0 3.0 0.00 0.00 0.00 80 1004.7
20260902133239 51 148 1.0 3.0 0.00 0.00 0.00 80 1004.7
20260902133207 51 148 0.0 3.0 0.00 0.00 0.00 80 1004.7
20260902133040 51 148 1.0 3.0 0.00 0.00 0.00 80 1004.7
20260902132945 51 148 2.0 3.0 0.00 0.00 0.00 80 1004.7
20260902132912 51 148 1.0 3.0 0.00 0.00 0.00 80 1004.7
20260902132748 51 148 2.0 3.0 0.00 0.00 0.00 80 1004.6
20260902132657 51 148 2.0 3.0 0.00 0.00 0.00 80 1004.7
20260902132552 51 148 2.0 3.0 0.00 0.00 0.00 80 1004.7
20260902132452 51 148 1.0 3.0 0.00 0.00 0.00 80 1004.8
20260902132358 51 148 1.0 3.0 0.00 0.00 0.00 80 1004.8
20260902132306 51 148 1.0 3.0 0.00 0.00 0.00 80 1004.9
20260902132141 51 148 1.0 3.0 0.00 0.00 0.00 80 1004.9
20260902132036 51 148 1.0 3.0 0.00 0.00 0.00 80 1004.9
20260902132002 51 148 0.0 3.0 0.00 0.00 0.00 80 1004.9
20260902131842 51 148 1.0 3.0 0.00 0.00 0.00 80 1004.9
20260902131738 51 148 1.0 3.0 0.00 0.00 0.00 80 1004.9
20260902131645 51 148 2.0 3.0 0.00 0.00 0.00 80 1004.8
20260902131549 51 148 2.0 4.0 0.00 0.00 0.00 80 1004.8
20260902131445 51 148 1.0 4.0 0.00 0.00 0.00 80 1004.8
20260902131352 51 148 1.0 4.0 0.00 0.00 0.00 80 1004.8
20260902131248 51 148 1.0 4.0 0.00 0.00 0.00 80 1004.8
20260902131156 51 148 1.0 4.0 0.00 0.00 0.00 80 1004.8
20260902131055 51 148 1.0 4.0 0.00 0.00 0.00 80 1004.8
20260902131002 51 148 1.0 4.0 0.00 0.00 0.00 80 1004.8
20260902130837 51 148 1.0 4.0 0.00 0.00 0.00 79 1004.8
20260902130803 51 148 2.0 4.0 0.00 0.00 0.00 80 1004.8
20260902130642 51 148 2.0 4.0 0.00 0.00 0.00 80 1004.8
20260902130537 51 148 2.0 4.0 0.00 0.00 0.00 80 1004.9
20260902130503 51 148 2.0 5.0 0.00 0.00 0.00 80 1004.9
20260902130343 52 148 1.0 5.0 0.00 0.00 0.00 80 1004.9
20260902130301 52 148 2.0 5.0 0.00 0.00 0.00 80 1004.9
20260902130215 52 148 3.0 5.0 0.00 0.00 0.00 80 1004.9
20260902130109 52 148 3.0 5.0 0.00 0.00 0.00 79 1005.0
20260902130015 51 148 2.0 5.0 0.00 0.00 0.00 79 1005.0
20260902125900 52 148 2.0 5.0 0.00 0.00 0.00 80 1005.0
20260902125756 52 148 3.0 5.0 0.00 0.00 0.00 79 1005.0
20260902125705 52 148 3.0 5.0 0.00 0.00 0.00 79 1005.1
20260902125439 52 148 2.0 3.0 0.00 0.00 0.00 79 1005.1
20260902125346 52 148 2.0 3.0 0.00 0.00 0.00 79 1005.1
20260902125251 52 148 2.0 3.0 0.00 0.00 0.00 79 1005.1
20260902125150 52 148 1.0 3.0 0.00 0.00 0.00 79 1005.0
20260902125046 52 148 0.0 1.0 0.00 0.00 0.00 79 1005.0
20260902124951 52 148 0.0 1.0 0.00 0.00 0.00 79 1005.1
20260902124851 52 148 0.0 1.0 0.00 0.00 0.00 79 1005.1
20260902124756 52 148 0.0 1.0 0.00 0.00 0.00 79 1005.1
20260902124654 52 148 0.0 1.0 0.00 0.00 0.00 79 1005.2
20260902124557 52 148 0.0 1.0 0.00 0.00 0.00 78 1005.1
20260902124454 52 148 0.0 0.0 0.00 0.00 0.00 78 1005.1
20260902124420 52 148 0.0 0.0 0.00 0.00 0.00 78 1005.1
20260902124239 52 148 0.0 0.0 0.00 0.00 0.00 78 1005.1
20260902124139 52 148 0.0 0.0 0.00 0.00 0.00 78 1005.1
20260902124103 52 148 0.0 0.0 0.00 0.00 0.00 78 1005.1
20260902124008 52 148 0.0 0.0 0.00 0.00 0.00 78 1005.1
20260902123843 52 148 0.0 0.0 0.00 0.00 0.00 78 1005.1
20260902123747 52 148 0.0 0.0 0.00 0.00 0.00 78 1005.1
20260902123646 52 148 0.0 1.0 0.00 0.00 0.00 78 1005.2
20260902123549 52 148 0.0 1.0 0.00 0.00 0.00 78 1005.1
20260902123452 52 148 0.0 1.0 0.00 0.00 0.00 78 1005.1
20260902123348 52 148 0.0 1.0 0.00 0.00 0.00 78 1005.1
20260902123254 52 148 0.0 1.0 0.00 0.00 0.00 78 1005.2
20260902123151 52 148 0.0 1.0 0.00 0.00 0.00 78 1005.2
20260902123054 52 148 0.0 2.0 0.00 0.00 0.00 79 1005.2
20260902122951 52 148 0.0 2.0 0.00 0.00 0.00 78 1005.2
20260902122901 52 148 0.0 2.0 0.00 0.00 0.00 78 1005.2
20260902122738 52 148 0.0 3.0 0.00 0.00 0.00 79 1005.2
20260902122657 52 148 0.0 4.0 0.00 0.00 0.00 79 1005.2
20260902122602 52 148 0.0 4.0 0.00 0.00 0.00 79 1005.3
20260902122439 52 148 0.0 4.0 0.00 0.00 0.00 79 1005.2
20260902122401 52 148 0.0 4.0 0.00 0.00 0.00 79 1005.2
20260902122242 52 148 1.0 5.0 0.00 0.00 0.00 79 1005.3
20260902122201 52 148 1.0 5.0 0.00 0.00 0.00 79 1005.3
20260902122044 52 148 2.0 5.0 0.00 0.00 0.00 79 1005.2
20260902121941 52 148 2.0 5.0 0.00 0.00 0.00 79 1005.2
20260902121846 52 148 2.0 7.0 0.00 0.00 0.00 79 1005.3
20260902121743 52 148 3.0 7.0 0.00 0.00 0.00 79 1005.3
20260902121651 52 148 2.0 7.0 0.00 0.00 0.00 79 1005.3
20260902121546 52 148 3.0 7.0 0.00 0.00 0.00 79 1005.2
20260902121454 52 148 4.0 7.0 0.00 0.00 0.00 79 1005.3
20260902121400 52 148 4.0 8.0 0.00 0.00 0.00 79 1005.2
20260902121324 52 147 3.0 8.0 0.00 0.00 0.00 79 1005.3
20260902121143 52 147 3.0 8.0 0.00 0.00 0.00 79 1005.3
20260902121038 52 147 3.0 8.0 0.00 0.00 0.00 79 1005.3
20260902120943 52 147 3.0 8.0 0.00 0.00 0.00 79 1005.3
20260902120839 52 147 3.0 8.0 0.00 0.00 0.00 79 1005.3
20260902120805 52 147 4.0 9.0 0.00 0.00 0.00 79 1005.3
20260902120658 52 147 4.0 9.0 0.00 0.00 0.00 79 1005.2
20260902120550 52 147 4.0 9.0 0.00 0.00 0.00 79 1005.2
20260902120515 52 147 4.0 9.0 0.00 0.00 0.00 79 1005.3
20260902120349 52 147 4.0 9.0 0.00 0.00 0.00 79 1005.3
20260902120307 52 147 4.0 9.0 0.00 0.00 0.00 79 1005.3
20260902120154 52 148 4.0 9.0 0.00 0.00 0.00 79 1005.3
20260902120059 52 148 6.0 9.0 0.00 0.00 0.00 79 1005.3
20260902115940 52 148 5.0 9.0 0.00 0.00 0.00 79 1005.3
20260902115837 52 148 5.0 9.0 0.00 0.00 0.00 79 1005.4
20260902115743 52 148 5.0 9.0 0.00 0.00 0.00 79 1005.4
20260902115642 52 157 6.0 9.0 0.00 0.00 0.00 79 1005.5
20260902115545 52 158 5.0 9.0 0.00 0.00 0.00 79 1005.5
20260902115503 52 160 4.0 9.0 0.00 0.00 0.00 78 1005.5
20260902115347 52 161 5.0 9.0 0.00 0.00 0.00 78 1005.5
20260902115312 52 163 5.0 9.0 0.00 0.00 0.00 78 1005.6
20260902115153 52 164 4.0 9.0 0.00 0.00 0.00 78 1005.6
20260902115038 52 180 4.0 8.0 0.00 0.00 0.00 78 1005.7
20260902114953 52 180 4.0 9.0 0.00 0.00 0.00 78 1005.6
20260902114859 52 155 4.0 9.0 0.00 0.00 0.00 78 1005.6
20260902114756 52 155 5.0 9.0 0.00 0.00 0.00 78 1005.6
20260902114703 52 155 5.0 9.0 0.00 0.00 0.00 77 1005.6
20260902114543 52 158 5.0 9.0 0.00 0.00 0.00 77 1005.6
20260902114440 52 158 6.0 9.0 0.00 0.00 0.00 77 1005.5
20260902114347 52 158 6.0 9.0 0.00 0.00 0.00 77 1005.5
20260902114303 52 173 5.0 9.0 0.00 0.00 0.00 77 1005.5
20260902114211 52 181 5.0 9.0 0.00 0.00 0.00 77 1005.5
20260902114113 52 144 4.0 7.0 0.00 0.00 0.00 77 1005.5
20260902113957 52 144 4.0 7.0 0.00 0.00 0.00 76 1005.5
20260902113854 52 143 4.0 7.0 0.00 0.00 0.00 76 1005.5
20260902113820 52 143 3.0 7.0 0.00 0.00 0.00 76 1005.5
20260902113641 52 143 3.0 7.0 0.00 0.00 0.00 76 1005.5
20260902113547 53 142 3.0 7.0 0.00 0.00 0.00 76 1005.4
20260902113442 53 143 4.0 7.0 0.00 0.00 0.00 76 1005.5
20260902113408 53 142 3.0 5.0 0.00 0.00 0.00 76 1005.4
20260902113314 53 142 3.0 5.0 0.00 0.00 0.00 76 1005.5
20260902113152 53 141 3.0 5.0 0.00 0.00 0.00 75 1005.4
20260902113056 53 140 3.0 5.0 0.00 0.00 0.00 75 1005.3
20260902112953 53 140 3.0 5.0 0.00 0.00 0.00 75 1005.4
20260902112903 53 140 3.0 5.0 0.00 0.00 0.00 75 1005.3
20260902112740 53 139 4.0 5.0 0.00 0.00 0.00 75 1005.4
20260902112639 53 139 3.0 5.0 0.00 0.00 0.00 75 1005.3
20260902112544 53 139 2.0 5.0 0.00 0.00 0.00 75 1005.3
20260902112440 53 139 2.0 5.0 0.00 0.00 0.00 75 1005.4
20260902112337 53 138 2.0 5.0 0.00 0.00 0.00 75 1005.4
20260902112245 53 138 2.0 5.0 0.00 0.00 0.00 75 1005.4
20260902112146 53 138 2.0 5.0 0.00 0.00 0.00 75 1005.4
20260902112051 53 138 2.0 5.0 0.00 0.00 0.00 75 1005.5
20260902112006 53 138 3.0 7.0 0.00 0.00 0.00 75 1005.5
20260902111851 53 138 3.0 7.0 0.00 0.00 0.00 75 1005.4
20260902111748 53 138 2.0 7.0 0.00 0.00 0.00 75 1005.4
20260902111657 53 138 3.0 8.0 0.00 0.00 0.00 75 1005.4
20260902111554 53 138 3.0 8.0 0.00 0.00 0.00 75 1005.4
20260902111500 53 138 3.0 8.0 0.00 0.00 0.00 75 1005.4
20260902111415 53 138 3.0 8.0 0.00 0.00 0.00 75 1005.4
20260902111259 53 138 3.0 9.0 0.00 0.00 0.00 75 1005.5
20260902111207 53 138 3.0 9.0 0.00 0.00 0.00 74 1005.5
20260902111040 53 138 3.0 9.0 0.00 0.00 0.00 74 1005.5
20260902111006 54 138 4.0 9.0 0.00 0.00 0.00 74 1005.5
20260902110842 54 138 4.0 9.0 0.00 0.00 0.00 74 1005.6
20260902110752 54 138 4.0 9.0 0.00 0.00 0.00 74 1005.5
20260902110650 54 138 4.0 9.0 0.00 0.00 0.00 74 1005.6
20260902110555 54 138 5.0 9.0 0.00 0.00 0.00 74 1005.6
20260902110451 54 138 5.0 9.0 0.00 0.00 0.00 73 1005.6
20260902110348 54 143 4.0 9.0 0.00 0.00 0.00 73 1005.6
20260902110306 54 144 3.0 9.0 0.00 0.00 0.00 73 1005.6
20260902110148 54 144 4.0 9.0 0.00 0.00 0.00 73 1005.6
20260902110057 54 144 4.0 9.0 0.00 0.00 0.00 73 1005.6
20260902105954 54 144 6.0 9.0 0.00 0.00 0.00 73 1005.6
20260902105918 54 144 6.0 9.0 0.00 0.00 0.00 73 1005.6
20260902105844 54 121 5.0 9.0 0.00 0.00 0.00 73 1005.6
20260902105558 54 145 5.0 8.0 0.00 0.00 0.00 72 1005.6
20260902105455 55 141 5.0 8.0 0.00 0.00 0.00 72 1005.7
20260902105341 55 146 5.0 8.0 0.00 0.00 0.00 72 1005.7
20260902105240 55 146 5.0 8.0 0.00 0.00 0.00 72 1005.7
20260902105148 55 147 5.0 8.0 0.00 0.00 0.00 72 1005.7
20260902105042 55 139 5.0 8.0 0.00 0.00 0.00 72 1005.7
20260902105008 55 139 4.0 8.0 0.00 0.00 0.00 72 1005.7
20260902104844 55 139 3.0 8.0 0.00 0.00 0.00 72 1005.7
20260902104810 55 139 4.0 8.0 0.00 0.00 0.00 72 1005.7
20260902104717 55 139 4.0 8.0 0.00 0.00 0.00 72 1005.6
20260902104551 55 140 4.0 8.0 0.00 0.00 0.00 72 1005.7
20260902104501 55 140 4.0 8.0 0.00 0.00 0.00 72 1005.6
20260902104358 55 154 4.0 7.0 0.00 0.00 0.00 72 1005.7
20260902104324 55 184 4.0 5.0 0.00 0.00 0.00 72 1005.6
20260902104201 55 184 3.0 5.0 0.00 0.00 0.00 72 1005.6
20260902104043 55 184 3.0 5.0 0.00 0.00 0.00 72 1005.6
20260902103939 55 184 3.0 5.0 0.00 0.00 0.00 73 1005.6
20260902103836 55 184 3.0 6.0 0.00 0.00 0.00 73 1005.6
20260902103745 55 184 2.0 6.0 0.00 0.00 0.00 73 1005.7
20260902103713 55 184 1.0 6.0 0.00 0.00 0.00 73 1005.6
20260902103548 55 184 3.0 6.0 0.00 0.00 0.00 73 1005.7
20260902103441 55 184 4.0 6.0 0.00 0.00 0.00 73 1005.6
20260902103408 55 186 3.0 6.0 0.00 0.00 0.00 73 1005.7
20260902103252 55 189 3.0 6.0 0.00 0.00 0.00 73 1005.7
20260902103210 55 189 4.0 6.0 0.00 0.00 0.00 73 1005.6
20260902103038 55 190 4.0 6.0 0.00 0.00 0.00 73 1005.6
20260902102953 55 173 3.0 7.0 0.00 0.00 0.00 73 1005.6
20260902102837 55 173 4.0 8.0 0.00 0.00 0.00 73 1005.7
20260902102754 55 173 4.0 8.0 0.00 0.00 0.00 73 1005.6
20260902102643 55 153 3.0 8.0 0.00 0.00 0.00 73 1005.6
20260902102538 55 153 4.0 8.0 0.00 0.00 0.00 73 1005.6
20260902102504 55 153 4.0 8.0 0.00 0.00 0.00 73 1005.6
20260902102345 55 153 3.0 8.0 0.00 0.00 0.00 74 1005.6
20260902102242 55 154 4.0 8.0 0.00 0.00 0.00 74 1005.6
20260902102150 55 154 4.0 8.0 0.00 0.00 0.00 74 1005.6
20260902102044 55 155 3.0 6.0 0.00 0.00 0.00 74 1005.6
20260902101951 55 204 3.0 6.0 0.00 0.00 0.00 74 1005.7
20260902101847 55 205 3.0 6.0 0.00 0.00 0.00 74 1005.7
20260902101742 55 205 3.0 6.0 0.00 0.00 0.00 74 1005.6
20260902101715 55 205 3.0 6.0 0.00 0.00 0.00 74 1005.7
20260902101558 55 205 3.0 6.0 0.00 0.00 0.00 74 1005.6
20260902101454 55 206 3.0 6.0 0.00 0.00 0.00 74 1005.6
20260902101351 55 207 2.0 7.0 0.00 0.00 0.00 74 1005.6
20260902101256 55 207 2.0 8.0 0.00 0.00 0.00 74 1005.6
20260902101155 55 207 2.0 9.0 0.00 0.00 0.00 74 1005.6
20260902101058 55 207 1.0 9.0 0.00 0.00 0.00 74 1005.6
20260902100937 55 207 1.0 9.0 0.00 0.00 0.00 74 1005.6
20260902100902 55 207 1.0 9.0 0.00 0.00 0.00 75 1005.6
20260902100827 55 207 2.0 9.0 0.00 0.00 0.00 74 1005.6
20260902100640 55 207 4.0 9.0 0.00 0.00 0.00 75 1005.7
20260902100536 55 207 5.0 9.0 0.00 0.00 0.00 75 1005.6
20260902100439 55 204 6.0 9.0 0.00 0.00 0.00 75 1005.6
20260902100357 55 206 6.0 9.0 0.00 0.00 0.00 75 1005.7
20260902100318 55 213 5.0 8.0 0.00 0.00 0.00 75 1005.7
20260902100212 55 231 5.0 8.0 0.00 0.00 0.00 75 1005.6
20260902100046 55 231 4.0 8.0 0.00 0.00 0.00 75 1005.7
20260902095953 54 258 2.0 7.0 0.00 0.00 0.00 75 1005.6
20260902095848 54 258 3.0 7.0 0.00 0.00 0.00 75 1005.6
20260902095814 54 258 4.0 7.0 0.00 0.00 0.00 75 1005.6
20260902095653 54 217 3.0 6.0 0.00 0.00 0.00 75 1005.6
20260902095557 54 217 3.0 6.0 0.00 0.00 0.00 75 1005.5
20260902095438 54 217 4.0 6.0 0.00 0.00 0.00 75 1005.5
20260902095404 54 217 4.0 6.0 0.00 0.00 0.00 75 1005.5
20260902095241 54 216 3.0 5.0 0.00 0.00 0.00 75 1005.5
20260902095200 54 217 3.0 5.0 0.00 0.00 0.00 75 1005.5
20260902095042 54 217 3.0 5.0 0.00 0.00 0.00 75 1005.5
20260902094938 54 217 2.0 5.0 0.00 0.00 0.00 75 1005.5
20260902094844 54 217 2.0 5.0 0.00 0.00 0.00 75 1005.5
20260902094742 54 217 3.0 5.0 0.00 0.00 0.00 75 1005.5
20260902094650 54 217 3.0 5.0 0.00 0.00 0.00 75 1005.5
20260902094545 54 217 3.0 5.0 0.00 0.00 0.00 74 1005.5
20260902094511 54 217 3.0 7.0 0.00 0.00 0.00 74 1005.5
20260902094346 54 217 3.0 7.0 0.00 0.00 0.00 74 1005.5
20260902094252 54 217 3.0 7.0 0.00 0.00 0.00 74 1005.5
20260902094151 54 217 3.0 7.0 0.00 0.00 0.00 74 1005.5
20260902094059 54 217 3.0 7.0 0.00 0.00 0.00 74 1005.5
20260902093955 54 217 3.0 7.0 0.00 0.00 0.00 74 1005.5
20260902093901 54 217 3.0 7.0 0.00 0.00 0.00 74 1005.5
20260902093758 54 217 4.0 9.0 0.00 0.00 0.00 74 1005.6
20260902093705 54 217 4.0 9.0 0.00 0.00 0.00 74 1005.6
20260902093541 54 217 3.0 9.0 0.00 0.00 0.00 74 1005.5
20260902093441 54 216 3.0 9.0 0.00 0.00 0.00 74 1005.6
20260902093346 54 216 5.0 9.0 0.00 0.00 0.00 74 1005.6
20260902093243 54 216 6.0 9.0 0.00 0.00 0.00 74 1005.6
20260902093143 55 198 6.0 9.0 0.00 0.00 0.00 74 1005.6
20260902093046 55 206 5.0 9.0 0.00 0.00 0.00 74 1005.6
20260902092952 55 217 4.0 8.0 0.00 0.00 0.00 74 1005.6
20260902092905 55 217 3.0 8.0 0.00 0.00 0.00 74 1005.6
20260902092744 55 217 3.0 8.0 0.00 0.00 0.00 74 1005.7
20260902092643 55 217 4.0 8.0 0.00 0.00 0.00 74 1005.7
20260902092608 55 217 5.0 8.0 0.00 0.00 0.00 74 1005.7
20260902092442 55 217 4.0 8.0 0.00 0.00 0.00 74 1005.7
20260902092348 55 217 4.0 8.0 0.00 0.00 0.00 74 1005.7
20260902092244 55 217 4.0 8.0 0.00 0.00 0.00 74 1005.8
20260902092211 55 217 4.0 8.0 0.00 0.00 0.00 74 1005.8
20260902092115 55 217 3.0 8.0 0.00 0.00 0.00 74 1005.9
20260902091950 55 217 3.0 8.0 0.00 0.00 0.00 74 1005.9
20260902091840 55 217 4.0 8.0 0.00 0.00 0.00 74 1005.9
20260902091736 55 216 4.0 8.0 0.00 0.00 0.00 74 1005.9
20260902091705 55 215 5.0 8.0 0.00 0.00 0.00 74 1005.9
20260902091540 55 215 4.0 8.0 0.00 0.00 0.00 74 1005.9
20260902091456 55 223 4.0 5.0 0.00 0.00 0.00 74 1005.9
20260902091341 55 223 4.0 5.0 0.00 0.00 0.00 74 1005.9
20260902091242 55 223 3.0 5.0 0.00 0.00 0.00 74 1005.9
20260902091141 55 223 3.0 5.0 0.00 0.00 0.00 74 1006.0
20260902091045 55 223 3.0 5.0 0.00 0.00 0.00 74 1005.9
20260902090941 55 223 3.0 5.0 0.00 0.00 0.00 73 1005.9
20260902090846 55 223 3.0 5.0 0.00 0.00 0.00 73 1006.0
20260902090743 55 223 4.0 5.0 0.00 0.00 0.00 73 1006.0
20260902090655 55 223 4.0 6.0 0.00 0.00 0.00 73 1006.0
20260902090549 55 223 3.0 6.0 0.00 0.00 0.00 73 1006.0
20260902090446 55 223 2.0 6.0 0.00 0.00 0.00 73 1006.0
20260902090352 55 223 3.0 6.0 0.00 0.00 0.00 73 1006.0
20260902090300 55 223 3.0 6.0 0.00 0.00 0.00 73 1006.1
20260902090155 55 223 3.0 6.0 0.00 0.00 0.00 73 1006.1
20260902090050 55 223 3.0 6.0 0.00 0.00 0.00 73 1006.0
20260902090019 55 223 3.0 6.0 0.00 0.00 0.00 73 1006.1
20260902085925 55 223 3.0 6.0 0.00 0.00 0.00 73 1006.1
20260902085741 55 223 2.0 5.0 0.00 0.00 0.00 73 1006.1
20260902085640 55 223 3.0 5.0 0.00 0.00 0.00 73 1006.1
20260902085604 55 223 3.0 5.0 0.00 0.00 0.00 73 1006.1
20260902085441 55 246 2.0 4.0 0.00 0.00 0.00 73 1006.1
20260902085338 55 246 2.0 4.0 0.00 0.00 0.00 73 1006.0
20260902085247 55 246 3.0 4.0 0.00 0.00 0.00 73 1006.1
20260902085143 55 246 3.0 4.0 0.00 0.00 0.00 73 1006.1
20260902085048 55 246 3.0 4.0 0.00 0.00 0.00 73 1006.1
20260902085005 55 246 2.0 4.0 0.00 0.00 0.00 73 1006.1
20260902084849 55 247 2.0 4.0 0.00 0.00 0.00 73 1006.0
20260902084753 55 246 1.0 4.0 0.00 0.00 0.00 73 1006.0
20260902084713 55 247 2.0 7.0 0.00 0.00 0.00 73 1006.0
20260902084616 55 246 2.0 7.0 0.00 0.00 0.00 73 1006.0
20260902084505 55 246 2.0 7.0 0.00 0.00 0.00 73 1006.0
20260902084400 55 246 2.0 7.0 0.00 0.00 0.00 73 1006.0
20260902084306 55 246 3.0 7.0 0.00 0.00 0.00 72 1005.9
20260902084144 55 246 3.0 7.0 0.00 0.00 0.00 72 1005.9
20260902084048 55 247 3.0 7.0 0.00 0.00 0.00 72 1005.9
20260902083944 55 247 4.0 7.0 0.00 0.00 0.00 72 1006.0
20260902083850 55 247 4.0 9.0 0.00 0.00 0.00 72 1005.9
20260902083807 55 246 4.0 9.0 0.00 0.00 0.00 72 1006.0
20260902083658 55 246 4.0 9.0 0.00 0.00 0.00 72 1005.9
20260902083602 55 246 3.0 9.0 0.00 0.00 0.00 72 1005.9
20260902083458 55 246 3.0 9.0 0.00 0.00 0.00 72 1005.9
20260902083402 55 246 4.0 9.0 0.00 0.00 0.00 72 1005.9
20260902083259 55 246 4.0 9.0 0.00 0.00 0.00 72 1005.9
20260902083207 55 246 5.0 9.0 0.00 0.00 0.00 72 1005.9
20260902083041 55 246 5.0 9.0 0.00 0.00 0.00 72 1005.9
20260902082942 55 244 6.0 12.0 0.00 0.00 0.00 72 1005.9
20260902082906 55 246 5.0 12.0 0.00 0.00 0.00 72 1005.9
20260902082752 56 246 4.0 12.0 0.00 0.00 0.00 72 1005.8
20260902082651 56 240 4.0 12.0 0.00 0.00 0.00 72 1005.8
20260902082546 56 240 5.0 12.0 0.00 0.00 0.00 72 1005.9
20260902082512 56 240 5.0 12.0 0.00 0.00 0.00 72 1005.8
20260902082357 56 275 6.0 12.0 0.00 0.00 0.00 72 1005.8
20260902082313 55 267 7.0 12.0 0.00 0.00 0.00 72 1005.8
20260902082204 55 264 7.0 12.0 0.00 0.00 0.00 72 1005.8
20260902082039 55 271 8.0 12.0 0.00 0.00 0.00 72 1005.8
20260902081936 55 269 7.0 12.0 0.00 0.00 0.00 72 1005.8
20260902081842 55 283 5.0 10.0 0.00 0.00 0.00 72 1005.8
20260902081739 55 231 5.0 10.0 0.00 0.00 0.00 72 1005.8
20260902081645 55 279 6.0 10.0 0.00 0.00 0.00 72 1005.7
20260902081539 55 264 6.0 10.0 0.00 0.00 0.00 72 1005.8
20260902081447 55 266 6.0 9.0 0.00 0.00 0.00 72 1005.8
20260902081353 55 251 5.0 9.0 0.00 0.00 0.00 72 1005.8
20260902081249 56 257 4.0 8.0 0.00 0.00 0.00 72 1005.8
20260902081148 56 271 4.0 9.0 0.00 0.00 0.00 72 1005.8
20260902081053 56 271 5.0 11.0 0.00 0.00 0.00 72 1005.8
20260902080949 56 273 4.0 11.0 0.00 0.00 0.00 72 1005.8
20260902080916 56 285 3.0 11.0 0.00 0.00 0.00 71 1005.8
20260902080755 56 245 3.0 11.0 0.00 0.00 0.00 71 1005.8
20260902080701 56 246 4.0 11.0 0.00 0.00 0.00 71 1005.8
20260902080536 56 291 6.0 11.0 0.00 0.00 0.00 71 1005.7
20260902080503 56 291 6.0 11.0 0.00 0.00 0.00 71 1005.7
20260902080340 56 264 5.0 11.0 0.00 0.00 0.00 71 1005.8
20260902080317 56 264 5.0 11.0 0.00 0.00 0.00 71 1005.8
20260902080203 56 268 2.0 9.0 0.00 0.00 0.00 71 1005.8
20260902080040 56 268 3.0 9.0 0.00 0.00 0.00 71 1005.8
20260902075947 56 268 3.0 9.0 0.00 0.00 0.00 71 1005.8
20260902075843 56 268 3.0 9.0 0.00 0.00 0.00 71 1005.8
20260902075747 56 268 3.0 9.0 0.00 0.00 0.00 71 1005.7
20260902075646 56 268 4.0 9.0 0.00 0.00 0.00 71 1005.7
20260902075550 56 268 5.0 9.0 0.00 0.00 0.00 71 1005.7
20260902075450 56 269 5.0 9.0 0.00 0.00 0.00 71 1005.7
20260902075416 56 263 4.0 9.0 0.00 0.00 0.00 71 1005.6
20260902075253 56 241 3.0 9.0 0.00 0.00 0.00 71 1005.7
20260902075200 56 238 2.0 9.0 0.00 0.00 0.00 71 1005.6
20260902075054 56 238 4.0 9.0 0.00 0.00 0.00 71 1005.6
20260902075000 56 238 6.0 9.0 0.00 0.00 0.00 71 1005.6
20260902074837 56 287 5.0 9.0 0.00 0.00 0.00 71 1005.6
20260902074742 56 287 4.0 9.0 0.00 0.00 0.00 71 1005.6
20260902074646 56 284 4.0 9.0 0.00 0.00 0.00 71 1005.6
20260902074550 56 283 4.0 9.0 0.00 0.00 0.00 71 1005.6
20260902074448 56 283 4.0 9.0 0.00 0.00 0.00 71 1005.6
20260902074344 56 285 5.0 9.0 0.00 0.00 0.00 71 1005.7
20260902074249 56 304 5.0 9.0 0.00 0.00 0.00 71 1005.7
20260902074149 56 278 4.0 9.0 0.00 0.00 0.00 71 1005.6
20260902074051 56 274 5.0 8.0 0.00 0.00 0.00 71 1005.6
20260902074003 56 273 5.0 11.0 0.00 0.00 0.00 70 1005.6
20260902073855 56 302 4.0 11.0 0.00 0.00 0.00 70 1005.6
20260902073740 56 260 3.0 11.0 0.00 0.00 0.00 71 1005.6
20260902073639 56 259 4.0 11.0 0.00 0.00 0.00 71 1005.6
20260902073603 56 259 4.0 11.0 0.00 0.00 0.00 70 1005.7
20260902073438 56 258 4.0 11.0 0.00 0.00 0.00 70 1005.6
20260902073344 56 259 5.0 11.0 0.00 0.00 0.00 70 1005.6
20260902073241 56 261 6.0 11.0 0.00 0.00 0.00 70 1005.6
20260902073150 56 264 7.0 11.0 0.00 0.00 0.00 70 1005.7
20260902073044 56 268 7.0 12.0 0.00 0.00 0.00 70 1005.6
20260902072942 56 260 7.0 12.0 0.00 0.00 0.00 70 1005.6
20260902072908 56 258 8.0 12.0 0.00 0.00 0.00 70 1005.6
20260902072752 56 277 8.0 12.0 0.00 0.00 0.00 70 1005.6
20260902072718 56 271 6.0 12.0 0.00 0.00 0.00 70 1005.6
20260902072552 57 252 6.0 12.0 0.00 0.00 0.00 70 1005.6
20260902072502 57 249 6.0 12.0 0.00 0.00 0.00 70 1005.6
20260902072359 57 296 7.0 12.0 0.00 0.00 0.00 70 1005.7
20260902072309 57 277 6.0 12.0 0.00 0.00 0.00 69 1005.7
20260902072142 57 247 4.0 9.0 0.00 0.00 0.00 69 1005.7
20260902072048 57 247 5.0 9.0 0.00 0.00 0.00 69 1005.7
20260902071945 57 251 5.0 9.0 0.00 0.00 0.00 69 1005.7
20260902071853 57 248 6.0 10.0 0.00 0.00 0.00 69 1005.7
20260902071751 57 252 6.0 10.0 0.00 0.00 0.00 69 1005.7
20260902071651 57 269 5.0 10.0 0.00 0.00 0.00 69 1005.7
20260902071554 57 271 5.0 10.0 0.00 0.00 0.00 69 1005.7
20260902071449 57 270 6.0 10.0 0.00 0.00 0.00 69 1005.7
20260902071416 57 271 5.0 10.0 0.00 0.00 0.00 69 1005.7
20260902071250 57 276 5.0 10.0 0.00 0.00 0.00 69 1005.7
20260902071159 57 277 7.0 10.0 0.00 0.00 0.00 69 1005.7
20260902071038 57 284 8.0 10.0 0.00 0.00 0.00 69 1005.7
20260902071003 57 288 8.0 10.0 0.00 0.00 0.00 69 1005.7
20260902070837 57 271 6.0 10.0 0.00 0.00 0.00 68 1005.7
20260902070801 57 270 5.0 10.0 0.00 0.00 0.00 68 1005.7
20260902070641 57 299 5.0 11.0 0.00 0.00 0.00 68 1005.7
20260902070607 57 308 6.0 11.0 0.00 0.00 0.00 69 1005.7
20260902070513 57 291 5.0 11.0 0.00 0.00 0.00 68 1005.6
20260902070350 57 282 6.0 11.0 0.00 0.00 0.00 68 1005.7
20260902070308 57 269 7.0 13.0 0.00 0.00 0.00 68 1005.7
20260902070153 57 269 7.0 13.0 0.00 0.00 0.00 68 1005.7
20260902070047 57 271 7.0 13.0 0.00 0.00 0.00 68 1005.7
20260902070013 57 273 6.0 13.0 0.00 0.00 0.00 68 1005.8
20260902065858 57 280 6.0 13.0 0.00 0.00 0.00 68 1005.7
20260902065755 57 264 5.0 13.0 0.00 0.00 0.00 68 1005.9
20260902065638 57 288 7.0 13.0 0.00 0.00 0.00 68 1005.9
20260902065543 57 268 7.0 13.0 0.00 0.00 0.00 68 1005.9
20260902065439 57 289 7.0 13.0 0.00 0.00 0.00 68 1005.9
20260902065404 57 255 7.0 12.0 0.00 0.00 0.00 68 1005.9
20260902065239 57 291 7.0 12.0 0.00 0.00 0.00 68 1005.9
20260902065145 57 273 7.0 12.0 0.00 0.00 0.00 68 1005.9
20260902065039 57 250 8.0 12.0 0.00 0.00 0.00 68 1005.9
20260902064948 57 271 9.0 12.0 0.00 0.00 0.00 68 1005.9
20260902064845 57 292 9.0 12.0 0.00 0.00 0.00 68 1005.9
20260902064750 57 274 8.0 12.0 0.00 0.00 0.00 68 1005.9
20260902064649 57 264 7.0 11.0 0.00 0.00 0.00 68 1005.9
20260902064612 57 248 7.0 11.0 0.00 0.00 0.00 68 1005.9
20260902064447 57 296 7.0 11.0 0.00 0.00 0.00 68 1005.9
20260902064413 57 272 7.0 10.0 0.00 0.00 0.00 68 1005.8
20260902064318 57 286 6.0 10.0 0.00 0.00 0.00 67 1005.9
20260902064140 58 255 7.0 13.0 0.00 0.00 0.00 67 1005.9
20260902064102 58 243 7.0 13.0 0.00 0.00 0.00 67 1005.9
20260902063938 58 256 6.0 13.0 0.00 0.00 0.00 67 1005.9
20260902063843 58 257 6.0 13.0 0.00 0.00 0.00 67 1005.8
20260902063738 58 285 5.0 13.0 0.00 0.00 0.00 67 1005.8
20260902063646 58 239 5.0 13.0 0.00 0.00 0.00 66 1005.9
20260902063540 58 250 6.0 13.0 0.00 0.00 0.00 67 1005.8
20260902063506 58 259 7.0 13.0 0.00 0.00 0.00 67 1005.9
20260902063353 58 252 8.0 13.0 0.00 0.00 0.00 67 1005.9
20260902063247 58 265 9.0 13.0 0.00 0.00 0.00 66 1005.9
20260902063216 58 284 8.0 13.0 0.00 0.00 0.00 66 1005.9
20260902063058 58 256 6.0 9.0 0.00 0.00 0.00 65 1005.9
20260902062936 58 267 4.0 9.0 0.00 0.00 0.00 65 1005.9
20260902062903 58 268 3.0 11.0 0.00 0.00 0.00 65 1005.9
20260902062739 58 269 3.0 11.0 0.00 0.00 0.00 65 1005.9
20260902062658 58 271 5.0 11.0 0.00 0.00 0.00 65 1005.9
20260902062545 58 271 6.0 11.0 0.00 0.00 0.00 65 1005.9
20260902062440 58 235 5.0 11.0 0.00 0.00 0.00 65 1005.9
20260902062400 58 237 5.0 11.0 0.00 0.00 0.00 65 1005.9
20260902062246 59 272 4.0 14.0 0.00 0.00 0.00 65 1005.8
20260902062145 59 269 4.0 16.0 0.00 0.00 0.00 65 1005.8
20260902062040 59 271 6.0 16.0 0.00 0.00 0.00 65 1005.8
20260902061944 59 260 6.0 16.0 0.00 0.00 0.00 64 1005.9
20260902061854 59 269 4.0 17.0 0.00 0.00 0.00 64 1005.7
20260902061750 59 269 6.0 18.0 0.00 0.00 0.00 64 1005.8
20260902061638 59 283 6.0 18.0 0.00 0.00 0.00 64 1005.8
20260902061553 59 269 8.0 18.0 0.00 0.00 0.00 64 1005.8
20260902061459 59 267 9.0 18.0 0.00 0.00 0.00 64 1005.8
20260902061336 59 296 7.0 18.0 0.00 0.00 0.00 64 1005.8
20260902061301 59 264 10.0 18.0 0.00 0.00 0.00 64 1005.8
20260902061139 59 285 13.0 18.0 0.00 0.00 0.00 64 1005.7
20260902061046 59 294 11.0 18.0 0.00 0.00 0.00 64 1005.8
20260902061012 59 294 10.0 18.0 0.00 0.00 0.00 64 1005.8
20260902060847 59 264 9.0 17.0 0.00 0.00 0.00 64 1005.9
20260902060744 59 294 10.0 17.0 0.00 0.00 0.00 64 1005.8
20260902060652 59 273 10.0 17.0 0.00 0.00 0.00 64 1005.8
20260902060548 59 276 10.0 17.0 0.00 0.00 0.00 64 1005.7
20260902060453 59 256 10.0 17.0 0.00 0.00 0.00 64 1005.7
20260902060354 59 258 9.0 15.0 0.00 0.00 0.00 64 1005.7
20260902060312 59 269 9.0 15.0 0.00 0.00 0.00 64 1005.7
20260902060226 59 254 9.0 15.0 0.00 0.00 0.00 64 1005.8
20260902060040 59 262 9.0 15.0 0.00 0.00 0.00 63 1005.7
20260902055938 59 266 8.0 15.0 0.00 0.00 0.00 63 1005.7
20260902055844 59 267 11.0 15.0 0.00 0.00 0.00 63 1005.7
20260902055740 59 300 8.0 15.0 0.00 0.00 0.00 63 1005.7
20260902055653 59 257 8.0 15.0 0.00 0.00 0.00 63 1005.7
20260902055548 59 260 8.0 14.0 0.00 0.00 0.00 63 1005.7
20260902055513 59 264 8.0 14.0 0.00 0.00 0.00 63 1005.7
20260902055349 59 268 9.0 14.0 0.00 0.00 0.00 63 1005.7
20260902055254 59 285 8.0 14.0 0.00 0.00 0.00 63 1005.7
20260902055153 59 271 8.0 13.0 0.00 0.00 0.00 63 1005.7
20260902055048 59 264 9.0 13.0 0.00 0.00 0.00 63 1005.7
20260902054939 59 289 9.0 14.0 0.00 0.00 0.00 63 1005.7
20260902054837 59 258 9.0 14.0 0.00 0.00 0.00 63 1005.7
20260902054803 59 296 9.0 14.0 0.00 0.00 0.00 63 1005.7
20260902054641 59 255 9.0 14.0 0.00 0.00 0.00 63 1005.8
20260902054536 59 258 9.0 14.0 0.00 0.00 0.00 63 1005.9
20260902054442 59 279 7.0 14.0 0.00 0.00 0.00 63 1005.8
20260902054342 59 251 7.0 14.0 0.00 0.00 0.00 63 1005.8
20260902054245 59 277 6.0 14.0 0.00 0.00 0.00 62 1005.8
20260902054145 59 253 6.0 14.0 0.00 0.00 0.00 62 1005.9
20260902054048 59 256 6.0 14.0 0.00 0.00 0.00 62 1005.9
20260902054015 59 294 8.0 14.0 0.00 0.00 0.00 62 1005.9
20260902053852 59 288 9.0 14.0 0.00 0.00 0.00 62 1005.9
20260902053748 59 275 8.0 14.0 0.00 0.00 0.00 62 1005.9
20260902053641 59 277 8.0 14.0 0.00 0.00 0.00 62 1005.9
20260902053537 59 315 6.0 12.0 0.00 0.00 0.00 62 1005.9
20260902053503 59 272 6.0 12.0 0.00 0.00 0.00 62 1005.9
20260902053337 59 271 5.0 15.0 0.00 0.00 0.00 62 1006.0
20260902053302 59 239 5.0 15.0 0.00 0.00 0.00 62 1006.0
20260902053141 59 254 7.0 15.0 0.00 0.00 0.00 62 1006.0
20260902053106 60 254 6.0 15.0 0.00 0.00 0.00 62 1006.0
20260902052946 60 254 7.0 15.0 0.00 0.00 0.00 62 1006.0
20260902052852 60 263 8.0 15.0 0.00 0.00 0.00 61 1006.0
20260902052748 60 248 8.0 15.0 0.00 0.00 0.00 61 1006.1
20260902052646 60 266 9.0 15.0 0.00 0.00 0.00 61 1006.0
20260902052549 60 271 9.0 15.0 0.00 0.00 0.00 61 1006.0
20260902052446 60 256 9.0 14.0 0.00 0.00 0.00 61 1006.0
20260902052350 60 267 10.0 14.0 0.00 0.00 0.00 61 1006.0
20260902052250 60 258 8.0 14.0 0.00 0.00 0.00 61 1006.0
20260902052218 60 266 7.0 14.0 0.00 0.00 0.00 61 1006.0
20260902052100 60 288 6.0 12.0 0.00 0.00 0.00 61 1005.9
20260902051937 60 287 6.0 12.0 0.00 0.00 0.00 61 1005.9
20260902051843 60 285 7.0 12.0 0.00 0.00 0.00 60 1005.9
20260902051740 60 283 6.0 12.0 0.00 0.00 0.00 60 1005.9
20260902051639 60 286 4.0 11.0 0.00 0.00 0.00 60 1005.9
20260902051547 60 291 6.0 11.0 0.00 0.00 0.00 60 1005.8
20260902051444 60 291 7.0 11.0 0.00 0.00 0.00 60 1005.9
20260902051349 60 281 5.0 10.0 0.00 0.00 0.00 60 1005.9
20260902051246 60 273 4.0 11.0 0.00 0.00 0.00 60 1005.9
20260902051154 60 272 3.0 11.0 0.00 0.00 0.00 60 1005.9
20260902051048 60 327 3.0 11.0 0.00 0.00 0.00 60 1005.8
20260902050944 60 327 4.0 11.0 0.00 0.00 0.00 60 1005.9
20260902050914 60 327 3.0 18.0 0.00 0.00 0.00 60 1005.8
20260902050800 60 331 5.0 18.0 0.00 0.00 0.00 60 1005.8
20260902050638 60 244 6.0 18.0 0.00 0.00 0.00 60 1005.8
20260902050550 60 277 6.0 18.0 0.00 0.00 0.00 60 1005.8
20260902050456 60 271 7.0 18.0 0.00 0.00 0.00 60 1005.8
20260902050354 60 267 9.0 18.0 0.00 0.00 0.00 60 1005.7
20260902050254 60 287 9.0 18.0 0.00 0.00 0.00 60 1005.7
20260902050140 60 266 9.0 18.0 0.00 0.00 0.00 60 1005.8
20260902050104 60 273 8.0 18.0 0.00 0.00 0.00 60 1005.9
20260902045941 60 291 5.0 16.0 0.00 0.00 0.00 60 1005.7
20260902045847 60 254 5.0 16.0 0.00 0.00 0.00 60 1005.7
20260902045743 60 322 6.0 16.0 0.00 0.00 0.00 60 1005.7
20260902045642 60 279 7.0 16.0 0.00 0.00 0.00 60 1005.7
20260902045550 60 281 8.0 16.0 0.00 0.00 0.00 60 1005.7
20260902045454 60 307 9.0 16.0 0.00 0.00 0.00 60 1005.7
20260902045419 60 287 10.0 16.0 0.00 0.00 0.00 60 1005.7
20260902045254 60 306 7.0 16.0 0.00 0.00 0.00 59 1005.6
20260902045153 60 279 5.0 15.0 0.00 0.00 0.00 59 1005.6
20260902045037 60 269 6.0 15.0 0.00 0.00 0.00 59 1005.7
20260902044954 60 326 5.0 15.0 0.00 0.00 0.00 59 1005.6
20260902044839 60 282 7.0 15.0 0.00 0.00 0.00 59 1005.6
20260902044741 60 264 7.0 16.0 0.00 0.00 0.00 59 1005.6
20260902044639 60 262 6.0 16.0 0.00 0.00 0.00 59 1005.6
20260902044544 60 245 7.0 16.0 0.00 0.00 0.00 59 1005.6
20260902044449 60 300 9.0 16.0 0.00 0.00 0.00 59 1005.6
20260902044344 60 303 9.0 16.0 0.00 0.00 0.00 59 1005.6
20260902044240 60 298 8.0 16.0 0.00 0.00 0.00 59 1005.6
20260902044149 60 287 8.0 16.0 0.00 0.00 0.00 59 1005.6
20260902044049 60 274 9.0 16.0 0.00 0.00 0.00 59 1005.6
20260902043955 60 295 9.0 16.0 0.00 0.00 0.00 59 1005.5
20260902043852 60 249 8.0 14.0 0.00 0.00 0.00 59 1005.5
20260902043755 60 277 7.0 14.0 0.00 0.00 0.00 59 1005.5
20260902043653 60 269 7.0 14.0 0.00 0.00 0.00 58 1005.5
20260902043557 60 273 8.0 14.0 0.00 0.00 0.00 58 1005.5
20260902043502 60 283 7.0 14.0 0.00 0.00 0.00 58 1005.4
20260902043343 60 264 7.0 14.0 0.00 0.00 0.00 58 1005.4
20260902043240 60 262 8.0 14.0 0.00 0.00 0.00 58 1005.5
20260902043147 60 293 6.0 13.0 0.00 0.00 0.00 58 1005.3
20260902043110 60 285 7.0 13.0 0.00 0.00 0.00 58 1005.3
20260902042945 60 277 9.0 13.0 0.00 0.00 0.00 58 1005.3
20260902042843 60 283 9.0 13.0 0.00 0.00 0.00 58 1005.4
20260902042749 60 300 8.0 13.0 0.00 0.00 0.00 58 1005.3
20260902042651 60 308 8.0 13.0 0.00 0.00 0.00 58 1005.3
20260902042615 60 249 7.0 13.0 0.00 0.00 0.00 58 1005.3
20260902042503 60 289 6.0 13.0 0.00 0.00 0.00 58 1005.3
20260902042338 60 290 6.0 11.0 0.00 0.00 0.00 58 1005.3
20260902042255 60 277 7.0 11.0 0.00 0.00 0.00 58 1005.3
20260902042204 61 293 6.0 11.0 0.00 0.00 0.00 58 1005.3
20260902042040 61 292 5.0 11.0 0.00 0.00 0.00 58 1005.2
20260902041941 61 294 6.0 11.0 0.00 0.00 0.00 58 1005.3
20260902041904 61 298 5.0 11.0 0.00 0.00 0.00 58 1005.3
20260902041750 61 302 4.0 11.0 0.00 0.00 0.00 58 1005.2
20260902041648 61 310 4.0 11.0 0.00 0.00 0.00 58 1005.2
20260902041543 61 310 6.0 11.0 0.00 0.00 0.00 58 1005.2
20260902041509 61 321 5.0 11.0 0.00 0.00 0.00 58 1005.3
20260902041355 61 312 6.0 11.0 0.00 0.00 0.00 58 1005.3
20260902041236 61 300 6.0 13.0 0.00 0.00 0.00 58 1005.3
20260902041155 61 260 4.0 13.0 0.00 0.00 0.00 58 1005.3
20260902041039 61 314 5.0 15.0 0.00 0.00 0.00 58 1005.3
20260902040943 61 277 5.0 18.0 0.00 0.00 0.00 58 1005.2
20260902040839 61 277 5.0 18.0 0.00 0.00 0.00 58 1005.2
20260902040747 61 277 5.0 18.0 0.00 0.00 0.00 58 1005.2
20260902040646 61 279 6.0 18.0 0.00 0.00 0.00 58 1005.2
20260902040545 61 270 8.0 18.0 0.00 0.00 0.00 58 1005.2
20260902040451 61 266 9.0 18.0 0.00 0.00 0.00 58 1005.1
20260902040348 61 260 9.0 18.0 0.00 0.00 0.00 58 1005.0
20260902040306 61 302 9.0 18.0 0.00 0.00 0.00 58 1005.0
20260902040149 61 314 10.0 18.0 0.00 0.00 0.00 58 1005.0
20260902040054 61 263 9.0 18.0 0.00 0.00 0.00 58 1004.8
20260902035951 61 319 5.0 13.0 0.00 0.00 0.00 58 1004.8
20260902035902 61 239 6.0 13.0 0.00 0.00 0.00 58 1004.8
20260902035737 61 286 7.0 13.0 0.00 0.00 0.00 58 1004.8
20260902035637 61 280 9.0 13.0 0.00 0.00 0.00 58 1004.8
20260902035541 61 289 10.0 13.0 0.00 0.00 0.00 58 1004.8
20260902035438 61 277 8.0 12.0 0.00 0.00 0.00 58 1004.8
20260902035405 61 292 5.0 12.0 0.00 0.00 0.00 58 1004.9
20260902035241 61 261 2.0 12.0 0.00 0.00 0.00 58 1004.7
20260902035151 61 260 2.0 14.0 0.00 0.00 0.00 58 1004.8
20260902035046 61 260 2.0 14.0 0.00 0.00 0.00 58 1004.7
20260902035012 61 244 2.0 19.0 0.00 0.00 0.00 58 1004.7
20260902034858 61 242 3.0 20.0 0.00 0.00 0.00 58 1004.6
20260902034749 61 243 6.0 20.0 0.00 0.00 0.00 58 1004.6
20260902034644 61 248 7.0 20.0 0.00 0.00 0.00 58 1004.6
20260902034548 61 299 6.0 20.0 0.00 0.00 0.00 58 1004.6
20260902034449 61 291 8.0 20.0 0.00 0.00 0.00 58 1004.6
20260902034354 61 295 10.0 20.0 0.00 0.00 0.00 58 1004.5
20260902034248 61 266 11.0 20.0 0.00 0.00 0.00 58 1004.6
20260902034216 61 287 13.0 20.0 0.00 0.00 0.00 58 1004.6
20260902034059 61 294 13.0 20.0 0.00 0.00 0.00 58 1004.5
20260902033956 61 239 12.0 20.0 0.00 0.00 0.00 58 1004.4
20260902033852 61 271 8.0 20.0 0.00 0.00 0.00 58 1004.5
20260902033742 61 273 6.0 20.0 0.00 0.00 0.00 58 1004.5
20260902033641 61 312 7.0 20.0 0.00 0.00 0.00 58 1004.5
20260902033602 61 273 8.0 20.0 0.00 0.00 0.00 58 1004.4
20260902033440 61 259 11.0 21.0 0.00 0.00 0.00 58 1004.5
20260902033336 61 336 12.0 21.0 0.00 0.00 0.00 58 1004.3
20260902033244 61 256 12.0 21.0 0.00 0.00 0.00 58 1004.4
20260902033141 61 273 11.0 21.0 0.00 0.00 0.00 58 1004.4
20260902033050 61 291 12.0 21.0 0.00 0.00 0.00 58 1004.3
20260902032946 61 262 13.0 21.0 0.00 0.00 0.00 58 1004.4
20260902032851 61 291 13.0 21.0 0.00 0.00 0.00 58 1004.4
20260902032808 62 239 14.0 21.0 0.00 0.00 0.00 58 1004.2
20260902032715 62 297 15.0 21.0 0.00 0.00 0.00 58 1004.3
20260902032557 62 262 12.0 21.0 0.00 0.00 0.00 58 1004.2
20260902032515 62 276 13.0 21.0 0.00 0.00 0.00 58 1004.1
20260902032343 62 269 14.0 21.0 0.00 0.00 0.00 58 1004.1
20260902032240 62 244 13.0 21.0 0.00 0.00 0.00 58 1004.1
20260902032140 62 277 10.0 21.0 0.00 0.00 0.00 58 1004.0
20260902032042 62 278 10.0 21.0 0.00 0.00 0.00 58 1004.0
20260902031939 62 239 11.0 21.0 0.00 0.00 0.00 58 1004.0
20260902031844 62 289 12.0 21.0 0.00 0.00 0.00 58 1004.0
20260902031740 62 284 11.0 25.0 0.00 0.00 0.00 58 1004.0
20260902031712 62 284 11.0 25.0 0.00 0.00 0.00 58 1003.9
20260902031554 62 277 13.0 26.0 0.00 0.00 0.00 58 1003.9
20260902031448 62 260 13.0 26.0 0.00 0.00 0.00 58 1003.9
20260902031413 62 298 13.0 26.0 0.00 0.00 0.00 58 1004.0
20260902031249 62 268 11.0 26.0 0.00 0.00 0.00 58 1003.9
20260902031157 62 249 11.0 26.0 0.00 0.00 0.00 58 1003.9
20260902031052 62 262 15.0 26.0 0.00 0.00 0.00 58 1003.8
20260902030950 62 287 15.0 26.0 0.00 0.00 0.00 58 1003.8
20260902030840 62 284 15.0 26.0 0.00 0.00 0.00 58 1003.9
20260902030757 62 275 16.0 26.0 0.00 0.00 0.00 58 1003.9
20260902030704 62 256 17.0 23.0 0.00 0.00 0.00 57 1003.8
20260902030607 62 226 16.0 23.0 0.00 0.00 0.00 57 1003.8
20260902030444 63 282 15.0 23.0 0.00 0.00 0.00 57 1003.8
20260902030348 63 291 14.0 23.0 0.00 0.00 0.00 57 1003.8
20260902030327 63 286 12.0 21.0 0.00 0.00 0.00 57 1003.8
20260902030152 63 217 12.0 21.0 0.00 0.00 0.00 57 1003.7
20260902030059 63 249 14.0 21.0 0.00 0.00 0.00 57 1003.8
20260902025954 63 229 12.0 21.0 0.00 0.00 0.00 57 1003.7
20260902025900 63 274 9.0 24.0 0.00 0.00 0.00 57 1003.7
20260902025805 63 252 10.0 24.0 0.00 0.00 0.00 57 1003.7
20260902025703 63 285 13.0 24.0 0.00 0.00 0.00 57 1003.7
20260902025537 63 278 12.0 24.0 0.00 0.00 0.00 57 1003.7
20260902025444 63 277 9.0 30.0 0.00 0.00 0.00 57 1003.6
20260902025345 63 233 9.0 30.0 0.00 0.00 0.00 57 1003.6
20260902025251 63 269 10.0 30.0 0.00 0.00 0.00 56 1003.6
20260902025149 63 245 15.0 30.0 0.00 0.00 0.00 56 1003.7
20260902025115 63 271 15.0 30.0 0.00 0.00 0.00 56 1003.6
20260902024950 63 268 14.0 30.0 0.00 0.00 0.00 56 1003.5
20260902024855 63 263 14.0 30.0 0.00 0.00 0.00 56 1003.6
20260902024752 63 276 16.0 30.0 0.00 0.00 0.00 56 1003.6
20260902024705 63 279 16.0 30.0 0.00 0.00 0.00 56 1003.6
20260902024537 64 249 15.0 26.0 0.00 0.00 0.00 55 1003.6
20260902024455 64 275 14.0 26.0 0.00 0.00 0.00 55 1003.5
20260902024338 64 265 12.0 26.0 0.00 0.00 0.00 55 1003.6
20260902024255 64 246 13.0 26.0 0.00 0.00 0.00 55 1003.6
20260902024203 64 307 15.0 26.0 0.00 0.00 0.00 55 1003.5
20260902024042 64 300 15.0 26.0 0.00 0.00 0.00 54 1003.4
20260902024009 64 252 13.0 26.0 0.00 0.00 0.00 54 1003.4
20260902023843 64 258 14.0 26.0 0.00 0.00 0.00 54 1003.4
20260902023740 64 267 13.0 26.0 0.00 0.00 0.00 54 1003.4
20260902023709 64 243 13.0 24.0 0.00 0.00 0.00 54 1003.4
20260902023552 64 221 13.0 24.0 0.00 0.00 0.00 54 1003.3
20260902023448 64 277 14.0 24.0 0.00 0.00 0.00 54 1003.3
20260902023414 64 229 14.0 24.0 0.00 0.00 0.00 54 1003.3
20260902023310 64 275 13.0 22.0 0.00 0.00 0.00 53 1003.3
20260902023201 64 284 12.0 22.0 0.00 0.00 0.00 53 1003.3
20260902023104 65 247 12.0 22.0 0.00 0.00 0.00 53 1003.3
20260902023001 65 254 10.0 22.0 0.00 0.00 0.00 53 1003.4
20260902022846 65 274 11.0 24.0 0.00 0.00 0.00 53 1003.3
20260902022743 65 289 12.0 24.0 0.00 0.00 0.00 53 1003.3
20260902022712 65 305 12.0 24.0 0.00 0.00 0.00 53 1003.3
20260902022546 65 251 13.0 24.0 0.00 0.00 0.00 52 1003.3
20260902022456 65 260 15.0 24.0 0.00 0.00 0.00 52 1003.3
20260902022353 65 248 15.0 24.0 0.00 0.00 0.00 52 1003.3
20260902022320 65 244 14.0 24.0 0.00 0.00 0.00 52 1003.3
20260902022157 65 277 14.0 24.0 0.00 0.00 0.00 52 1003.3
20260902022040 65 274 13.0 24.0 0.00 0.00 0.00 52 1003.3
20260902021957 65 258 12.0 22.0 0.00 0.00 0.00 51 1003.3
20260902021902 65 235 11.0 22.0 0.00 0.00 0.00 51 1003.3
20260902021746 65 250 12.0 22.0 0.00 0.00 0.00 51 1003.2
20260902021645 66 273 13.0 22.0 0.00 0.00 0.00 51 1003.3
20260902021549 66 298 14.0 23.0 0.00 0.00 0.00 51 1003.2
20260902021444 66 269 14.0 23.0 0.00 0.00 0.00 50 1003.2
20260902021349 66 269 15.0 23.0 0.00 0.00 0.00 50 1003.3
20260902021246 66 254 13.0 23.0 0.00 0.00 0.00 50 1003.3
20260902021153 66 242 10.0 23.0 0.00 0.00 0.00 50 1003.2
20260902021047 66 239 11.0 23.0 0.00 0.00 0.00 50 1003.2
20260902020953 66 262 12.0 23.0 0.00 0.00 0.00 50 1003.2
20260902020854 66 262 14.0 23.0 0.00 0.00 0.00 50 1003.2
20260902020800 66 261 12.0 23.0 0.00 0.00 0.00 49 1003.2
20260902020640 66 266 10.0 20.0 0.00 0.00 0.00 49 1003.3
20260902020555 66 242 11.0 20.0 0.00 0.00 0.00 49 1003.3
20260902020439 67 264 11.0 20.0 0.00 0.00 0.00 49 1003.2
20260902020356 67 262 11.0 20.0 0.00 0.00 0.00 49 1003.3
20260902020317 67 281 10.0 20.0 0.00 0.00 0.00 49 1003.3
20260902020141 67 266 11.0 20.0 0.00 0.00 0.00 48 1003.3
20260902020045 67 280 12.0 20.0 0.00 0.00 0.00 48 1003.3
20260902015943 67 255 13.0 20.0 0.00 0.00 0.00 48 1003.3
20260902015847 67 252 13.0 20.0 0.00 0.00 0.00 48 1003.3
20260902015744 67 284 13.0 19.0 0.00 0.00 0.00 48 1003.3
20260902015643 67 262 12.0 19.0 0.00 0.00 0.00 48 1003.3
20260902015551 67 270 11.0 19.0 0.00 0.00 0.00 48 1003.3
20260902015457 67 271 8.0 19.0 0.00 0.00 0.00 48 1003.2
20260902015354 67 279 8.0 19.0 0.00 0.00 0.00 48 1003.2
20260902015239 67 252 9.0 19.0 0.00 0.00 0.00 48 1003.2
20260902015138 67 238 10.0 19.0 0.00 0.00 0.00 48 1003.2
20260902015101 67 269 11.0 19.0 0.00 0.00 0.00 48 1003.2
20260902014939 67 264 11.0 19.0 0.00 0.00 0.00 48 1003.3
20260902014839 67 256 10.0 19.0 0.00 0.00 0.00 48 1003.3
20260902014745 67 265 11.0 19.0 0.00 0.00 0.00 48 1003.2
20260902014652 67 252 12.0 20.0 0.00 0.00 0.00 48 1003.3
20260902014546 67 284 14.0 20.0 0.00 0.00 0.00 48 1003.2
20260902014442 67 265 12.0 23.0 0.00 0.00 0.00 48 1003.2
20260902014342 67 229 11.0 23.0 0.00 0.00 0.00 48 1003.2
20260902014308 67 246 12.0 23.0 0.00 0.00 0.00 48 1003.2
20260902014205 67 233 11.0 23.0 0.00 0.00 0.00 48 1003.1
20260902014054 67 280 10.0 23.0 0.00 0.00 0.00 48 1003.2
20260902013950 67 252 13.0 23.0 0.00 0.00 0.00 47 1003.1
20260902013836 67 233 13.0 23.0 0.00 0.00 0.00 47 1003.1
20260902013752 67 237 13.0 23.0 0.00 0.00 0.00 47 1003.1
20260902013700 68 281 16.0 23.0 0.00 0.00 0.00 47 1003.1
20260902013604 68 244 16.0 23.0 0.00 0.00 0.00 47 1003.1
20260902013440 68 228 16.0 24.0 0.00 0.00 0.00 46 1003.2
20260902013340 68 273 15.0 21.0 0.00 0.00 0.00 46 1003.2
20260902013247 68 291 14.0 21.0 0.00 0.00 0.00 46 1003.1
20260902013146 68 215 13.0 21.0 0.00 0.00 0.00 46 1003.1
20260902013050 68 254 13.0 21.0 0.00 0.00 0.00 46 1003.1
20260902013007 68 279 14.0 21.0 0.00 0.00 0.00 46 1003.1
20260902012850 68 250 14.0 21.0 0.00 0.00 0.00 46 1003.2
20260902012745 68 253 14.0 21.0 0.00 0.00 0.00 46 1003.1
20260902012713 68 257 12.0 21.0 0.00 0.00 0.00 46 1003.1
20260902012559 68 271 9.0 21.0 0.00 0.00 0.00 46 1003.1
20260902012455 68 250 11.0 21.0 0.00 0.00 0.00 46 1003.1
20260902012421 68 263 14.0 21.0 0.00 0.00 0.00 46 1003.1
20260902012237 68 289 13.0 21.0 0.00 0.00 0.00 46 1003.0
20260902012157 68 291 14.0 20.0 0.00 0.00 0.00 46 1003.0
20260902012101 68 276 13.0 20.0 0.00 0.00 0.00 46 1002.9
20260902011938 68 280 12.0 19.0 0.00 0.00 0.00 46 1002.9
20260902011849 68 248 11.0 19.0 0.00 0.00 0.00 46 1002.9
20260902011746 68 235 9.0 18.0 0.00 0.00 0.00 47 1002.9
20260902011713 68 248 8.0 17.0 0.00 0.00 0.00 47 1002.9
20260902011555 68 299 8.0 17.0 0.00 0.00 0.00 47 1002.9
20260902011451 68 245 9.0 17.0 0.00 0.00 0.00 46 1002.9
20260902011354 68 227 11.0 19.0 0.00 0.00 0.00 46 1002.8
20260902011311 68 258 10.0 19.0 0.00 0.00 0.00 46 1002.8
20260902011143 68 275 7.0 22.0 0.00 0.00 0.00 46 1002.8
20260902011037 68 233 8.0 22.0 0.00 0.00 0.00 46 1002.8
20260902011003 68 242 7.0 22.0 0.00 0.00 0.00 46 1002.7
20260902010839 69 246 8.0 28.0 0.00 0.00 0.00 45 1002.7
20260902010736 69 231 9.0 28.0 0.00 0.00 0.00 45 1002.8
20260902010644 69 238 12.0 28.0 0.00 0.00 0.00 45 1002.7
20260902010539 69 290 14.0 28.0 0.00 0.00 0.00 44 1002.7
20260902010439 69 274 15.0 28.0 0.00 0.00 0.00 44 1002.7
20260902010345 69 275 15.0 28.0 0.00 0.00 0.00 44 1002.6
20260902010322 69 289 15.0 28.0 0.00 0.00 0.00 44 1002.6
20260902010148 69 253 17.0 29.0 0.00 0.00 0.00 44 1002.6
20260902010112 69 277 18.0 29.0 0.00 0.00 0.00 43 1002.5
20260902010017 69 269 19.0 29.0 0.00 0.00 0.00 43 1002.6
20260902005911 69 270 18.0 29.0 0.00 0.00 0.00 43 1002.6
20260902005754 69 259 17.0 29.0 0.00 0.00 0.00 43 1002.5
20260902005700 69 263 16.0 29.0 0.00 0.00 0.00 43 1002.6
20260902005538 70 289 18.0 29.0 0.00 0.00 0.00 43 1002.6
20260902005455 70 283 20.0 29.0 0.00 0.00 0.00 43 1002.7
20260902005340 70 229 18.0 29.0 0.00 0.00 0.00 43 1002.8
20260902005236 70 270 15.0 25.0 0.00 0.00 0.00 43 1002.8
20260902005142 70 273 16.0 25.0 0.00 0.00 0.00 43 1002.8
20260902005102 70 240 16.0 26.0 0.00 0.00 0.00 43 1002.8
20260902004957 70 255 17.0 26.0 0.00 0.00 0.00 42 1002.9
20260902004847 70 269 17.0 26.0 0.00 0.00 0.00 42 1002.9
20260902004742 70 262 17.0 26.0 0.00 0.00 0.00 42 1002.8
20260902004640 70 257 17.0 26.0 0.00 0.00 0.00 42 1002.8
20260902004545 70 244 17.0 27.0 0.00 0.00 0.00 42 1002.7
20260902004442 70 252 16.0 27.0 0.00 0.00 0.00 42 1002.7
20260902004408 71 273 16.0 27.0 0.00 0.00 0.00 42 1002.6
20260902004313 71 239 15.0 27.0 0.00 0.00 0.00 41 1002.6
20260902004211 71 253 15.0 27.0 0.00 0.00 0.00 41 1002.6
20260902004058 71 253 18.0 27.0 0.00 0.00 0.00 41 1002.6
20260902004003 71 258 17.0 27.0 0.00 0.00 0.00 41 1002.7
20260902003841 71 256 18.0 27.0 0.00 0.00 0.00 41 1002.7
20260902003744 71 244 15.0 27.0 0.00 0.00 0.00 40 1002.7
20260902003644 71 254 14.0 22.0 0.00 0.00 0.00 40 1002.6
20260902003548 71 290 16.0 22.0 0.00 0.00 0.00 40 1002.6
20260902003443 71 258 16.0 22.0 0.00 0.00 0.00 40 1002.6
20260902003409 72 250 15.0 23.0 0.00 0.00 0.00 40 1002.5
20260902003256 72 277 14.0 23.0 0.00 0.00 0.00 40 1002.5
20260902003154 72 246 14.0 23.0 0.00 0.00 0.00 40 1002.5
20260902003059 72 264 14.0 25.0 0.00 0.00 0.00 40 1002.5
20260902002954 72 253 15.0 25.0 0.00 0.00 0.00 40 1002.5
20260902002851 72 246 12.0 25.0 0.00 0.00 0.00 40 1002.5
20260902002755 72 245 10.0 25.0 0.00 0.00 0.00 39 1002.5
20260902002638 72 266 13.0 25.0 0.00 0.00 0.00 40 1002.5
20260902002602 72 256 14.0 25.0 0.00 0.00 0.00 39 1002.5
20260902002438 72 289 14.0 25.0 0.00 0.00 0.00 39 1002.5
20260902002404 72 252 14.0 25.0 0.00 0.00 0.00 39 1002.4
20260902002241 72 289 16.0 25.0 0.00 0.00 0.00 39 1002.4
20260902002140 73 298 13.0 21.0 0.00 0.00 0.00 38 1002.4
20260902002035 73 285 12.0 21.0 0.00 0.00 0.00 38 1002.4
20260902001943 73 286 12.0 21.0 0.00 0.00 0.00 39 1002.4
20260902001848 73 262 12.0 20.0 0.00 0.00 0.00 39 1002.4
20260902001746 73 258 12.0 20.0 0.00 0.00 0.00 38 1002.5
20260902001644 73 260 11.0 20.0 0.00 0.00 0.00 38 1002.5
20260902001607 73 291 9.0 20.0 0.00 0.00 0.00 38 1002.5
20260902001452 73 287 9.0 20.0 0.00 0.00 0.00 38 1002.5
20260902001409 72 275 10.0 20.0 0.00 0.00 0.00 38 1002.5
20260902001237 73 285 12.0 26.0 0.00 0.00 0.00 38 1002.4
20260902001157 73 273 13.0 26.0 0.00 0.00 0.00 38 1002.4
20260902001100 73 271 13.0 26.0 0.00 0.00 0.00 38 1002.4
20260902000957 73 271 13.0 26.0 0.00 0.00 0.00 37 1002.4
20260902000841 73 280 12.0 26.0 0.00 0.00 0.00 37 1002.5
20260902000739 73 272 11.0 26.0 0.00 0.00 0.00 37 1002.5
20260902000708 73 243 12.0 26.0 0.00 0.00 0.00 37 1002.5
20260902000541 73 276 16.0 26.0 0.00 0.00 0.00 37 1002.4
20260902000451 73 267 16.0 26.0 0.00 0.00 0.00 37 1002.5
20260902000346 73 264 15.0 25.0 0.00 0.00 0.00 36 1002.5
20260902000304 73 273 15.0 25.0 0.00 0.00 0.00 36 1002.5
20260902000158 73 283 15.0 25.0 0.00 0.00 0.00 36 1002.5
20260902000111 73 285 14.0 25.0 0.00 0.00 0.00 36 1002.5
20260901235954 73 283 15.0 25.0 0.00 0.00 0.00 36 1002.5
20260901235919 73 278 15.0 25.0 0.00 0.00 0.00 36 1002.4
20260901235755 73 233 16.0 25.0 0.00 0.00 0.00 36 1002.4
20260901235639 73 285 16.0 25.0 0.00 0.00 0.00 36 1002.5
20260901235601 74 267 14.0 23.0 0.00 0.00 0.00 36 1002.4
20260901235437 74 275 13.0 23.0 0.00 0.00 0.00 36 1002.4
20260901235339 74 274 13.0 23.0 0.00 0.00 0.00 36 1002.4
20260901235246 74 215 12.0 23.0 0.00 0.00 0.00 35 1002.4
20260901235205 74 221 13.0 23.0 0.00 0.00 0.00 36 1002.4
20260901235046 74 271 14.0 23.0 0.00 0.00 0.00 36 1002.4
20260901234942 74 269 14.0 23.0 0.00 0.00 0.00 35 1002.4
20260901234912 74 274 13.0 22.0 0.00 0.00 0.00 35 1002.3
20260901234757 74 249 12.0 22.0 0.00 0.00 0.00 35 1002.4
20260901234707 74 297 13.0 22.0 0.00 0.00 0.00 35 1002.4
20260901234548 74 287 13.0 22.0 0.00 0.00 0.00 35 1002.4
20260901234445 74 273 13.0 22.0 0.00 0.00 0.00 35 1002.5
20260901234351 74 244 14.0 22.0 0.00 0.00 0.00 35 1002.4
20260901234247 74 291 15.0 24.0 0.00 0.00 0.00 35 1002.5
20260901234215 74 271 14.0 24.0 0.00 0.00 0.00 35 1002.5
20260901234054 74 281 13.0 24.0 0.00 0.00 0.00 35 1002.5
20260901234000 74 250 13.0 24.0 0.00 0.00 0.00 34 1002.5
20260901233838 75 277 11.0 24.0 0.00 0.00 0.00 34 1002.4
20260901233743 75 271 13.0 26.0 0.00 0.00 0.00 34 1002.5
20260901233712 75 273 16.0 26.0 0.00 0.00 0.00 34 1002.6
20260901233542 75 273 15.0 26.0 0.00 0.00 0.00 33 1002.5
20260901233448 75 283 14.0 26.0 0.00 0.00 0.00 33 1002.5
20260901233345 75 294 14.0 26.0 0.00 0.00 0.00 34 1002.5
20260901233252 75 265 13.0 26.0 0.00 0.00 0.00 33 1002.5
20260901233151 75 287 13.0 26.0 0.00 0.00 0.00 33 1002.6
20260901233046 75 284 15.0 26.0 0.00 0.00 0.00 33 1002.6
20260901232949 75 286 17.0 26.0 0.00 0.00 0.00 33 1002.6
20260901232855 75 270 16.0 26.0 0.00 0.00 0.00 33 1002.6
20260901232753 75 287 15.0 25.0 0.00 0.00 0.00 33 1002.6
20260901232702 75 270 16.0 29.0 0.00 0.00 0.00 33 1002.6
20260901232540 75 262 16.0 29.0 0.00 0.00 0.00 32 1002.6
20260901232435 75 287 16.0 29.0 0.00 0.00 0.00 32 1002.6
20260901232402 75 278 17.0 29.0 0.00 0.00 0.00 32 1002.6
20260901232237 76 277 14.0 29.0 0.00 0.00 0.00 32 1002.6
20260901232145 76 273 14.0 29.0 0.00 0.00 0.00 32 1002.6
20260901232039 76 250 15.0 29.0 0.00 0.00 0.00 32 1002.6
20260901231949 76 267 17.0 29.0 0.00 0.00 0.00 32 1002.6
20260901231847 76 295 15.0 29.0 0.00 0.00 0.00 32 1002.6
20260901231742 76 252 11.0 24.0 0.00 0.00 0.00 31 1002.6
20260901231648 76 272 12.0 24.0 0.00 0.00 0.00 31 1002.5
20260901231542 76 293 13.0 24.0 0.00 0.00 0.00 31 1002.6
20260901231447 76 304 15.0 24.0 0.00 0.00 0.00 31 1002.7
20260901231344 76 262 14.0 24.0 0.00 0.00 0.00 31 1002.6
20260901231254 76 285 13.0 24.0 0.00 0.00 0.00 31 1002.7
20260901231213 76 294 15.0 26.0 0.00 0.00 0.00 31 1002.7
20260901231056 76 261 17.0 26.0 0.00 0.00 0.00 31 1002.7
20260901230953 76 287 15.0 26.0 0.00 0.00 0.00 31 1002.7
20260901230858 76 297 14.0 27.0 0.00 0.00 0.00 31 1002.6
20260901230755 76 258 14.0 27.0 0.00 0.00 0.00 31 1002.7
20260901230638 76 277 15.0 27.0 0.00 0.00 0.00 31 1002.7
20260901230542 76 280 15.0 27.0 0.00 0.00 0.00 31 1002.7
20260901230458 76 275 17.0 27.0 0.00 0.00 0.00 31 1002.7
20260901230343 76 291 16.0 27.0 0.00 0.00 0.00 31 1002.8
20260901230251 76 277 17.0 27.0 0.00 0.00 0.00 31 1002.6
20260901230146 76 285 16.0 27.0 0.00 0.00 0.00 31 1002.7
20260901230041 76 288 13.0 26.0 0.00 0.00 0.00 32 1002.7
20260901230007 75 289 12.0 26.0 0.00 0.00 0.00 32 1002.7
20260901225915 75 271 15.0 26.0 0.00 0.00 0.00 32 1002.7
20260901225750 75 291 16.0 26.0 0.00 0.00 0.00 32 1002.7
20260901225656 75 276 15.0 26.0 0.00 0.00 0.00 32 1002.8
20260901225551 75 260 16.0 26.0 0.00 0.00 0.00 32 1002.8
20260901225449 75 285 14.0 24.0 0.00 0.00 0.00 31 1002.8
20260901225356 75 292 15.0 24.0 0.00 0.00 0.00 31 1002.8
20260901225236 75 261 17.0 24.0 0.00 0.00 0.00 31 1002.8
20260901225204 76 298 16.0 22.0 0.00 0.00 0.00 31 1002.8
20260901225040 76 281 14.0 25.0 0.00 0.00 0.00 31 1002.8
20260901224936 76 277 13.0 25.0 0.00 0.00 0.00 31 1002.7
20260901224842 76 265 13.0 25.0 0.00 0.00 0.00 31 1002.7
20260901224739 76 301 14.0 25.0 0.00 0.00 0.00 31 1002.7
20260901224704 76 260 14.0 25.0 0.00 0.00 0.00 31 1002.7
20260901224543 76 254 14.0 25.0 0.00 0.00 0.00 30 1002.6
20260901224440 76 291 14.0 25.0 0.00 0.00 0.00 30 1002.7
20260901224404 76 293 15.0 25.0 0.00 0.00 0.00 30 1002.7
20260901224240 76 277 14.0 26.0 0.00 0.00 0.00 30 1002.6
20260901224147 76 280 12.0 26.0 0.00 0.00 0.00 30 1002.7
20260901224110 76 269 12.0 26.0 0.00 0.00 0.00 30 1002.6
20260901223943 77 272 13.0 26.0 0.00 0.00 0.00 30 1002.7
20260901223849 77 271 13.0 26.0 0.00 0.00 0.00 29 1002.6
20260901223819 77 294 14.0 26.0 0.00 0.00 0.00 29 1002.7
20260901223657 77 245 14.0 26.0 0.00 0.00 0.00 29 1002.6
20260901223552 77 281 15.0 26.0 0.00 0.00 0.00 29 1002.7
20260901223437 77 270 15.0 26.0 0.00 0.00 0.00 29 1002.6
20260901223402 77 255 15.0 21.0 0.00 0.00 0.00 29 1002.6
20260901223240 78 250 14.0 21.0 0.00 0.00 0.00 28 1002.6
20260901223139 78 245 12.0 21.0 0.00 0.00 0.00 28 1002.6
20260901223106 78 257 12.0 21.0 0.00 0.00 0.00 28 1002.5
20260901222941 78 283 12.0 21.0 0.00 0.00 0.00 28 1002.6
20260901222846 78 264 11.0 21.0 0.00 0.00 0.00 27 1002.6
20260901222742 79 284 10.0 19.0 0.00 0.00 0.00 28 1002.5
20260901222650 79 252 11.0 19.0 0.00 0.00 0.00 27 1002.6
20260901222544 79 281 12.0 19.0 0.00 0.00 0.00 27 1002.5
20260901222441 79 281 13.0 19.0 0.00 0.00 0.00 27 1002.5
20260901222352 79 276 12.0 19.0 0.00 0.00 0.00 27 1002.6
20260901222318 79 247 10.0 19.0 0.00 0.00 0.00 27 1002.5
20260901222156 80 290 11.0 19.0 0.00 0.00 0.00 26 1002.5
20260901222121 80 262 12.0 19.0 0.00 0.00 0.00 26 1002.5
20260901221957 80 275 12.0 19.0 0.00 0.00 0.00 26 1002.6
20260901221841 80 287 10.0 19.0 0.00 0.00 0.00 26 1002.5
20260901221759 80 287 10.0 19.0 0.00 0.00 0.00 26 1002.5
20260901221646 80 288 11.0 19.0 0.00 0.00 0.00 26 1002.4
20260901221544 80 268 11.0 16.0 0.00 0.00 0.00 26 1002.4
20260901221450 80 270 11.0 16.0 0.00 0.00 0.00 25 1002.5
20260901221346 81 265 9.0 16.0 0.00 0.00 0.00 25 1002.5
20260901221253 81 313 9.0 16.0 0.00 0.00 0.00 25 1002.5
20260901221211 81 307 11.0 16.0 0.00 0.00 0.00 25 1002.6
20260901221054 81 301 12.0 16.0 0.00 0.00 0.00 25 1002.6
20260901220936 81 260 11.0 16.0 0.00 0.00 0.00 24 1002.6
20260901220902 81 277 10.0 16.0 0.00 0.00 0.00 24 1002.6
20260901220738 81 283 10.0 16.0 0.00 0.00 0.00 24 1002.6
20260901220638 81 281 9.0 16.0 0.00 0.00 0.00 24 1002.6
20260901220543 81 275 8.0 16.0 0.00 0.00 0.00 24 1002.6
20260901220437 82 270 9.0 16.0 0.00 0.00 0.00 24 1002.6
20260901220341 82 294 10.0 16.0 0.00 0.00 0.00 24 1002.6
20260901220254 82 298 11.0 16.0 0.00 0.00 0.00 24 1002.6
20260901220149 82 283 10.0 16.0 0.00 0.00 0.00 24 1002.6
20260901220046 82 329 9.0 16.0 0.00 0.00 0.00 24 1002.6
20260901215942 82 257 10.0 16.0 0.00 0.00 0.00 24 1002.6
20260901215848 82 264 11.0 17.0 0.00 0.00 0.00 25 1002.6
20260901215812 82 249 11.0 17.0 0.00 0.00 0.00 24 1002.6
20260901215650 82 250 10.0 17.0 0.00 0.00 0.00 24 1002.6
20260901215558 82 254 9.0 17.0 0.00 0.00 0.00 24 1002.6
20260901215436 82 291 8.0 17.0 0.00 0.00 0.00 24 1002.6
20260901215402 82 313 9.0 17.0 0.00 0.00 0.00 24 1002.4
20260901215257 81 281 10.0 19.0 0.00 0.00 0.00 25 1002.4
20260901215204 81 254 11.0 19.0 0.00 0.00 0.00 24 1002.4
20260901215039 81 264 12.0 19.0 0.00 0.00 0.00 24 1002.5
20260901214936 81 274 11.0 19.0 0.00 0.00 0.00 25 1002.5
20260901214847 80 302 11.0 19.0 0.00 0.00 0.00 25 1002.5
20260901214744 80 271 11.0 19.0 0.00 0.00 0.00 25 1002.5
20260901214713 80 245 12.0 19.0 0.00 0.00 0.00 25 1002.6
20260901214546 80 288 11.0 19.0 0.00 0.00 0.00 25 1002.6
20260901214448 79 252 9.0 19.0 0.00 0.00 0.00 25 1002.6
20260901214344 79 295 8.0 17.0 0.00 0.00 0.00 25 1002.6
20260901214250 79 266 9.0 17.0 0.00 0.00 0.00 25 1002.6
20260901214158 79 288 9.0 17.0 0.00 0.00 0.00 26 1002.6
20260901214037 79 302 9.0 15.0 0.00 0.00 0.00 25 1002.7
20260901213953 79 283 10.0 15.0 0.00 0.00 0.00 25 1002.7
20260901213900 79 288 9.0 15.0 0.00 0.00 0.00 25 1002.7
20260901213822 79 270 9.0 15.0 0.00 0.00 0.00 25 1002.8
20260901213640 79 280 9.0 15.0 0.00 0.00 0.00 25 1002.7
20260901213535 79 283 10.0 15.0 0.00 0.00 0.00 25 1002.7
20260901213447 79 280 11.0 15.0 0.00 0.00 0.00 25 1002.7
20260901213343 79 304 9.0 15.0 0.00 0.00 0.00 25 1002.6
20260901213240 79 273 8.0 15.0 0.00 0.00 0.00 25 1002.7
20260901213208 79 293 10.0 16.0 0.00 0.00 0.00 25 1002.7
20260901213110 80 271 11.0 16.0 0.00 0.00 0.00 24 1002.7
20260901212946 80 281 10.0 16.0 0.00 0.00 0.00 24 1002.7
20260901212852 80 265 9.0 16.0 0.00 0.00 0.00 24 1002.6
20260901212750 80 274 8.0 16.0 0.00 0.00 0.00 24 1002.6
20260901212701 80 279 10.0 16.0 0.00 0.00 0.00 24 1002.6
20260901212554 80 255 10.0 16.0 0.00 0.00 0.00 24 1002.6
20260901212459 80 247 12.0 16.0 0.00 0.00 0.00 24 1002.6
20260901212404 80 252 11.0 16.0 0.00 0.00 0.00 24 1002.6
20260901212238 81 259 9.0 16.0 0.00 0.00 0.00 23 1002.7
20260901212145 81 266 9.0 16.0 0.00 0.00 0.00 23 1002.7
20260901212041 81 260 10.0 16.0 0.00 0.00 0.00 23 1002.7
20260901211948 81 248 11.0 16.0 0.00 0.00 0.00 23 1002.7
20260901211849 81 258 10.0 16.0 0.00 0.00 0.00 23 1002.7
20260901211745 81 275 10.0 15.0 0.00 0.00 0.00 24 1002.7
20260901211547 82 225 10.0 15.0 0.00 0.00 0.00 23 1002.7
20260901211451 82 269 10.0 15.0 0.00 0.00 0.00 23 1002.7
20260901211417 82 269 7.0 14.0 0.00 0.00 0.00 23 1002.7
20260901211321 82 263 7.0 14.0 0.00 0.00 0.00 22 1002.7
20260901211139 83 289 8.0 14.0 0.00 0.00 0.00 22 1002.7
20260901211037 83 287 9.0 15.0 0.00 0.00 0.00 22 1002.8
20260901210942 83 278 9.0 15.0 0.00 0.00 0.00 22 1002.8
20260901210840 83 260 10.0 15.0 0.00 0.00 0.00 23 1003.0
20260901210747 83 236 10.0 15.0 0.00 0.00 0.00 23 1002.9
20260901210655 83 273 8.0 15.0 0.00 0.00 0.00 23 1002.8
20260901210549 82 283 8.0 15.0 0.00 0.00 0.00 22 1002.8
20260901210453 82 287 10.0 15.0 0.00 0.00 0.00 22 1002.8
20260901210353 82 272 9.0 15.0 0.00 0.00 0.00 22 1002.9
20260901210311 82 274 10.0 15.0 0.00 0.00 0.00 22 1002.9
20260901210156 82 306 6.0 17.0 0.00 0.00 0.00 23 1002.8
20260901210100 83 267 4.0 17.0 0.00 0.00 0.00 22 1002.8
20260901210016 83 136 7.0 17.0 0.00 0.00 0.00 22 1002.9
20260901205902 83 287 8.0 17.0 0.00 0.00 0.00 22 1002.8
20260901205737 83 278 9.0 17.0 0.00 0.00 0.00 22 1003.0
20260901205639 83 263 11.0 17.0 0.00 0.00 0.00 22 1002.9
20260901205543 83 299 11.0 17.0 0.00 0.00 0.00 22 1002.9
20260901205439 83 276 9.0 17.0 0.00 0.00 0.00 22 1002.9
20260901205344 83 254 9.0 13.0 0.00 0.00 0.00 22 1002.9
20260901205300 83 294 8.0 13.0 0.00 0.00 0.00 22 1003.0
20260901205148 83 263 6.0 12.0 0.00 0.00 0.00 22 1002.9
20260901205042 83 247 7.0 15.0 0.00 0.00 0.00 22 1002.9
20260901204952 83 219 7.0 15.0 0.00 0.00 0.00 22 1002.9
20260901204848 83 253 7.0 15.0 0.00 0.00 0.00 22 1002.9
20260901204754 83 245 7.0 15.0 0.00 0.00 0.00 22 1003.0
20260901204652 83 258 6.0 15.0 0.00 0.00 0.00 23 1003.0
20260901204548 83 255 6.0 15.0 0.00 0.00 0.00 22 1003.0
20260901204512 83 298 8.0 15.0 0.00 0.00 0.00 22 1003.1
20260901204336 83 273 10.0 15.0 0.00 0.00 0.00 22 1003.0
20260901204238 83 269 9.0 15.0 0.00 0.00 0.00 22 1003.0
20260901204138 83 264 7.0 13.0 0.00 0.00 0.00 22 1002.9
20260901204042 83 274 6.0 11.0 0.00 0.00 0.00 22 1003.0
20260901203946 82 259 4.0 11.0 0.00 0.00 0.00 22 1003.0
20260901203843 82 254 3.0 11.0 0.00 0.00 0.00 23 1003.0
20260901203741 82 299 3.0 11.0 0.00 0.00 0.00 22 1002.9
20260901203649 82 299 5.0 11.0 0.00 0.00 0.00 22 1003.1
20260901203549 82 299 6.0 11.0 0.00 0.00 0.00 22 1003.1
20260901203454 82 304 5.0 13.0 0.00 0.00 0.00 23 1003.1
20260901203410 82 295 3.0 13.0 0.00 0.00 0.00 22 1003.1
20260901203236 82 299 3.0 13.0 0.00 0.00 0.00 22 1003.0
20260901203154 82 298 4.0 13.0 0.00 0.00 0.00 22 1003.1
20260901203058 82 298 4.0 13.0 0.00 0.00 0.00 22 1003.1
20260901202938 82 296 4.0 13.0 0.00 0.00 0.00 22 1003.2
20260901202903 82 343 5.0 13.0 0.00 0.00 0.00 22 1003.1
20260901202739 82 343 8.0 13.0 0.00 0.00 0.00 22 1003.2
20260901202640 82 287 7.0 13.0 0.00 0.00 0.00 23 1003.2
20260901202535 82 283 6.0 13.0 0.00 0.00 0.00 23 1003.1
20260901202439 82 293 7.0 12.0 0.00 0.00 0.00 23 1003.2
20260901202345 82 267 6.0 12.0 0.00 0.00 0.00 23 1003.1
20260901202246 82 292 3.0 8.0 0.00 0.00 0.00 24 1003.1
20260901202214 82 351 2.0 8.0 0.00 0.00 0.00 24 1003.2
20260901202049 82 254 2.0 9.0 0.00 0.00 0.00 24 1003.2
20260901201954 82 254 3.0 9.0 0.00 0.00 0.00 25 1003.2
20260901201853 82 254 3.0 9.0 0.00 0.00 0.00 24 1003.2
20260901201758 82 254 4.0 11.0 0.00 0.00 0.00 24 1003.2
20260901201657 82 259 5.0 11.0 0.00 0.00 0.00 24 1003.3
20260901201555 82 260 6.0 11.0 0.00 0.00 0.00 24 1003.3
20260901201440 82 312 6.0 11.0 0.00 0.00 0.00 24 1003.3
20260901201336 82 310 6.0 11.0 0.00 0.00 0.00 24 1003.3
20260901201302 82 281 6.0 11.0 0.00 0.00 0.00 24 1003.3
20260901201202 81 259 5.0 11.0 0.00 0.00 0.00 24 1003.3
20260901201044 81 232 8.0 11.0 0.00 0.00 0.00 24 1003.3
20260901201000 81 248 9.0 11.0 0.00 0.00 0.00 24 1003.3
20260901200905 81 279 7.0 12.0 0.00 0.00 0.00 24 1003.4
20260901200753 81 291 5.0 11.0 0.00 0.00 0.00 24 1003.3
20260901200714 81 294 3.0 11.0 0.00 0.00 0.00 24 1003.4
20260901200555 81 294 5.0 11.0 0.00 0.00 0.00 24 1003.4
20260901200453 81 309 7.0 11.0 0.00 0.00 0.00 24 1003.4
20260901200358 81 296 7.0 11.0 0.00 0.00 0.00 24 1003.4
20260901200335 81 291 8.0 11.0 0.00 0.00 0.00 24 1003.4
20260901200137 81 273 5.0 11.0 0.00 0.00 0.00 24 1003.4
20260901200058 81 308 5.0 10.0 0.00 0.00 0.00 24 1003.4
20260901195942 81 307 6.0 10.0 0.00 0.00 0.00 24 1003.4
20260901195839 81 309 4.0 11.0 0.00 0.00 0.00 24 1003.4
20260901195806 81 313 4.0 11.0 0.00 0.00 0.00 25 1003.4
20260901195644 81 306 4.0 11.0 0.00 0.00 0.00 25 1003.4
20260901195549 81 306 5.0 14.0 0.00 0.00 0.00 24 1003.4
20260901195447 81 306 6.0 14.0 0.00 0.00 0.00 24 1003.4
20260901195355 81 304 5.0 14.0 0.00 0.00 0.00 24 1003.4
20260901195252 81 267 2.0 19.0 0.00 0.00 0.00 24 1003.4
20260901195200 81 293 4.0 19.0 0.00 0.00 0.00 24 1003.4
20260901195054 81 293 7.0 19.0 0.00 0.00 0.00 24 1003.5
20260901194951 81 302 8.0 19.0 0.00 0.00 0.00 24 1003.5
20260901194838 81 314 9.0 19.0 0.00 0.00 0.00 24 1003.6
20260901194738 81 289 8.0 19.0 0.00 0.00 0.00 24 1003.6
20260901194637 81 276 8.0 19.0 0.00 0.00 0.00 24 1003.6
20260901194540 81 273 11.0 19.0 0.00 0.00 0.00 24 1003.6
20260901194437 81 301 12.0 19.0 0.00 0.00 0.00 24 1003.6
20260901194342 81 306 11.0 20.0 0.00 0.00 0.00 24 1003.6
20260901194239 81 282 9.0 20.0 0.00 0.00 0.00 24 1003.6
20260901194148 81 285 7.0 20.0 0.00 0.00 0.00 25 1003.5
20260901194112 81 319 5.0 20.0 0.00 0.00 0.00 26 1003.6
20260901194011 81 214 5.0 20.0 0.00 0.00 0.00 25 1003.6
20260901193916 81 319 6.0 20.0 0.00 0.00 0.00 26 1003.7
20260901193800 81 301 7.0 20.0 0.00 0.00 0.00 26 1003.6
20260901193700 81 273 9.0 20.0 0.00 0.00 0.00 29 1003.7
20260901193535 81 233 7.0 20.0 0.00 0.00 0.00 27 1003.6
20260901193501 81 237 6.0 16.0 0.00 0.00 0.00 28 1003.6
20260901193346 81 237 6.0 16.0 0.00 0.00 0.00 28 1003.6
20260901193242 80 233 4.0 16.0 0.00 0.00 0.00 28 1003.6
20260901193153 80 246 4.0 16.0 0.00 0.00 0.00 28 1003.7
20260901193047 80 247 7.0 16.0 0.00 0.00 0.00 29 1003.7
20260901193012 80 248 6.0 16.0 0.00 0.00 0.00 32 1003.7
20260901192917 80 216 2.0 10.0 0.00 0.00 0.00 30 1003.7
20260901192753 80 351 2.0 10.0 0.00 0.00 0.00 31 1003.8
20260901192701 80 350 3.0 10.0 0.00 0.00 0.00 30 1003.8
20260901192553 80 350 4.0 10.0 0.00 0.00 0.00 30 1003.8
20260901192518 80 343 5.0 10.0 0.00 0.00 0.00 29 1003.8
20260901192337 80 358 6.0 10.0 0.00 0.00 0.00 29 1003.8
20260901192306 80 358 5.0 10.0 0.00 0.00 0.00 29 1003.9
20260901192141 80 356 3.0 12.0 0.00 0.00 0.00 30 1003.9
20260901192036 80 281 4.0 13.0 0.00 0.00 0.00 30 1004.0
20260901191940 80 288 4.0 13.0 0.00 0.00 0.00 30 1003.9
20260901191837 80 290 4.0 13.0 0.00 0.00 0.00 31 1004.0
20260901191742 79 299 4.0 13.0 0.00 0.00 0.00 30 1004.0
20260901191645 79 305 3.0 13.0 0.00 0.00 0.00 31 1004.0
20260901191550 79 305 5.0 13.0 0.00 0.00 0.00 30 1004.0
20260901191447 79 305 8.0 13.0 0.00 0.00 0.00 30 1004.1
20260901191354 79 304 7.0 13.0 0.00 0.00 0.00 30 1004.0
20260901191251 79 266 3.0 13.0 0.00 0.00 0.00 34 1004.1
20260901191150 79 252 1.0 7.0 0.00 0.00 0.00 33 1004.1
20260901191057 79 252 2.0 7.0 0.00 0.00 0.00 32 1004.1
20260901190953 79 252 4.0 10.0 0.00 0.00 0.00 33 1004.1
20260901190900 79 255 4.0 11.0 0.00 0.00 0.00 33 1004.1
20260901190754 79 254 2.0 11.0 0.00 0.00 0.00 32 1004.1
20260901190702 79 262 2.0 11.0 0.00 0.00 0.00 32 1004.2
20260901190605 79 262 2.0 11.0 0.00 0.00 0.00 32 1004.2
20260901190438 79 262 2.0 11.0 0.00 0.00 0.00 32 1004.2
20260901190339 79 262 2.0 11.0 0.00 0.00 0.00 32 1004.3
20260901190256 78 262 4.0 11.0 0.00 0.00 0.00 32 1004.2
20260901190211 79 262 6.0 11.0 0.00 0.00 0.00 32 1004.3
20260901190044 78 260 5.0 11.0 0.00 0.00 0.00 33 1004.3
20260901185941 78 228 5.0 11.0 0.00 0.00 0.00 33 1004.3
20260901185906 78 228 6.0 11.0 0.00 0.00 0.00 32 1004.3
20260901185811 78 256 3.0 8.0 0.00 0.00 0.00 33 1004.3
20260901185648 78 288 1.0 8.0 0.00 0.00 0.00 33 1004.2
20260901185538 78 288 1.0 8.0 0.00 0.00 0.00 32 1004.3
20260901185453 78 288 1.0 8.0 0.00 0.00 0.00 32 1004.3
20260901185359 78 288 2.0 8.0 0.00 0.00 0.00 33 1004.3
20260901185326 78 288 3.0 8.0 0.00 0.00 0.00 32 1004.3
20260901185143 78 289 4.0 8.0 0.00 0.00 0.00 33 1004.2
20260901185057 78 289 4.0 8.0 0.00 0.00 0.00 33 1004.3
20260901184941 78 289 3.0 8.0 0.00 0.00 0.00 33 1004.3
20260901184842 78 289 2.0 7.0 0.00 0.00 0.00 34 1004.3
20260901184747 78 289 4.0 7.0 0.00 0.00 0.00 33 1004.3
20260901184647 78 289 5.0 7.0 0.00 0.00 0.00 33 1004.3
20260901184540 78 289 4.0 7.0 0.00 0.00 0.00 33 1004.3
20260901184446 78 285 3.0 7.0 0.00 0.00 0.00 33 1004.3
20260901184343 78 233 2.0 4.0 0.00 0.00 0.00 34 1004.3
20260901184248 78 233 2.0 4.0 0.00 0.00 0.00 34 1004.3
20260901184151 78 233 2.0 4.0 0.00 0.00 0.00 36 1004.4
20260901184054 77 233 2.0 4.0 0.00 0.00 0.00 36 1004.4
20260901183951 77 233 1.0 5.0 0.00 0.00 0.00 34 1004.3
20260901183848 77 233 1.0 5.0 0.00 0.00 0.00 34 1004.3
20260901183752 77 233 0.0 5.0 0.00 0.00 0.00 37 1004.3
20260901183653 77 233 1.0 5.0 0.00 0.00 0.00 34 1004.4
20260901183600 77 233 2.0 5.0 0.00 0.00 0.00 34 1004.4
20260901183457 77 233 1.0 5.0 0.00 0.00 0.00 34 1004.4
20260901183402 77 233 2.0 7.0 0.00 0.00 0.00 34 1004.4
20260901183307 77 233 3.0 8.0 0.00 0.00 0.00 34 1004.4
20260901183144 77 233 3.0 8.0 0.00 0.00 0.00 34 1004.4
20260901183040 76 229 2.0 8.0 0.00 0.00 0.00 35 1004.5
20260901182944 76 229 2.0 8.0 0.00 0.00 0.00 35 1004.5
20260901182841 76 229 1.0 8.0 0.00 0.00 0.00 35 1004.5
20260901182750 76 229 1.0 8.0 0.00 0.00 0.00 36 1004.5
20260901182649 76 229 3.0 8.0 0.00 0.00 0.00 36 1004.5
20260901182551 76 229 5.0 8.0 0.00 0.00 0.00 37 1004.5
20260901182448 75 220 6.0 8.0 0.00 0.00 0.00 37 1004.4
20260901182342 75 218 4.0 8.0 0.00 0.00 0.00 36 1004.4
20260901182247 75 260 3.0 7.0 0.00 0.00 0.00 36 1004.5
20260901182151 75 264 3.0 7.0 0.00 0.00 0.00 36 1004.5
20260901182055 75 264 4.0 7.0 0.00 0.00 0.00 36 1004.5
20260901181951 75 264 4.0 7.0 0.00 0.00 0.00 37 1004.5
20260901181856 75 167 2.0 5.0 0.00 0.00 0.00 37 1004.5
20260901181752 74 167 2.0 6.0 0.00 0.00 0.00 37 1004.5
20260901181649 74 167 2.0 6.0 0.00 0.00 0.00 37 1004.5
20260901181612 74 167 2.0 6.0 0.00 0.00 0.00 37 1004.5
20260901181500 74 167 3.0 6.0 0.00 0.00 0.00 38 1004.5
20260901181357 74 167 2.0 7.0 0.00 0.00 0.00 37 1004.5
20260901181323 74 167 1.0 7.0 0.00 0.00 0.00 37 1004.5
20260901181201 74 167 1.0 7.0 0.00 0.00 0.00 37 1004.5
20260901181044 74 167 3.0 7.0 0.00 0.00 0.00 37 1004.5
20260901180942 74 167 3.0 7.0 0.00 0.00 0.00 37 1004.6
20260901180908 74 167 3.0 7.0 0.00 0.00 0.00 37 1004.5
20260901180743 74 167 3.0 7.0 0.00 0.00 0.00 38 1004.5
20260901180655 74 167 3.0 7.0 0.00 0.00 0.00 38 1004.5
20260901180550 74 167 2.0 7.0 0.00 0.00 0.00 37 1004.5
20260901180446 73 167 1.0 5.0 0.00 0.00 0.00 37 1004.5
20260901180353 73 167 2.0 5.0 0.00 0.00 0.00 37 1004.5
20260901180258 73 167 2.0 5.0 0.00 0.00 0.00 38 1004.5
20260901180213 73 166 2.0 5.0 0.00 0.00 0.00 37 1004.6
20260901180055 73 166 2.0 7.0 0.00 0.00 0.00 37 1004.6
20260901175936 73 166 1.0 7.0 0.00 0.00 0.00 37 1004.6
20260901175901 73 166 2.0 7.0 0.00 0.00 0.00 38 1004.6
20260901175736 73 166 4.0 7.0 0.00 0.00 0.00 38 1004.6
20260901175703 73 166 4.0 8.0 0.00 0.00 0.00 38 1004.7
20260901175559 73 166 3.0 8.0 0.00 0.00 0.00 38 1004.6
20260901175503 73 167 2.0 8.0 0.00 0.00 0.00 39 1004.6
20260901175339 73 167 3.0 8.0 0.00 0.00 0.00 38 1004.6
20260901175309 73 167 5.0 8.0 0.00 0.00 0.00 38 1004.6
20260901175217 73 167 5.0 8.0 0.00 0.00 0.00 38 1004.7
20260901175111 73 167 5.0 8.0 0.00 0.00 0.00 39 1004.6
20260901174956 73 167 5.0 8.0 0.00 0.00 0.00 39 1004.6
20260901174852 73 169 3.0 8.0 0.00 0.00 0.00 38 1004.6
20260901174758 73 173 2.0 7.0 0.00 0.00 0.00 38 1004.7
20260901174655 73 171 2.0 7.0 0.00 0.00 0.00 38 1004.7
20260901174549 73 171 4.0 7.0 0.00 0.00 0.00 40 1004.6
20260901174458 72 171 3.0 7.0 0.00 0.00 0.00 39 1004.7
20260901174336 72 171 3.0 6.0 0.00 0.00 0.00 39 1004.7
20260901174240 72 171 3.0 6.0 0.00 0.00 0.00 39 1004.6
20260901174139 72 171 3.0 6.0 0.00 0.00 0.00 39 1004.7
20260901174043 72 171 4.0 6.0 0.00 0.00 0.00 39 1004.6
20260901173958 72 171 3.0 6.0 0.00 0.00 0.00 39 1004.6